GFSMA_prec_precacc_156.txt.gz
Total_Precipitation_Accumulation
0.42 0.45 0.43 0.47 0.86 0.82 0.89 0.54 0.48 0.56 0.53 0.54 0.46 0.33 0.22 0.47 0.47 0.56 0.71 0.82 0.82 0.84 0.96 0.83 0.66 0.67 0.58 0.38 0.27 0.22 0.27 0.32 0.31 0.37 0.37 0.24 0.21 0.26 0.33 0.39 0.46 0.29 0.25
0.56 0.60 0.53 0.44 0.62 0.62 0.69 0.60 0.34 0.49 0.63 0.54 0.52 0.35 0.11 0.33 0.47 0.70 0.94 1.12 1.11 1.03 1.21 1.14 0.96 0.64 0.46 0.48 0.39 0.28 0.21 0.21 0.31 0.31 0.33 0.25 0.19 0.23 0.22 0.23 0.30 0.34 0.26
0.76 0.63 0.66 0.51 0.44 0.47 0.44 0.55 0.53 0.53 0.54 0.55 0.48 0.46 0.27 0.17 0.22 0.51 0.93 0.84 0.81 0.63 0.77 1.32 1.21 0.75 0.42 0.36 0.26 0.26 0.23 0.19 0.27 0.31 0.32 0.32 0.21 0.16 0.22 0.23 0.26 0.32 0.34
0.87 0.80 0.70 0.55 0.54 0.46 0.31 0.43 0.34 0.44 0.48 0.43 0.36 0.35 0.29 0.16 0.10 0.22 0.59 0.63 0.66 0.51 0.51 0.52 0.78 0.63 0.36 0.27 0.21 0.17 0.17 0.18 0.19 0.21 0.18 0.21 0.34 0.26 0.18 0.23 0.35 0.40 0.41
0.93 0.81 0.75 0.56 0.64 0.62 0.36 0.35 0.33 0.36 0.40 0.38 0.31 0.35 0.38 0.25 0.15 0.16 0.33 0.56 0.56 0.60 0.41 0.38 0.33 0.34 0.32 0.26 0.27 0.26 0.18 0.12 0.14 0.14 0.14 0.09 0.10 0.28 0.38 0.34 0.34 0.47 0.49
1.13 0.96 0.96 0.87 0.78 0.61 0.52 0.55 0.48 0.45 0.39 0.30 0.36 0.39 0.30 0.31 0.29 0.29 0.30 0.38 0.61 0.65 0.70 0.50 0.43 0.37 0.29 0.22 0.30 0.33 0.30 0.24 0.08 0.10 0.10 0.08 0.07 0.07 0.17 0.25 0.40 0.57 0.65
1.32 1.08 1.08 1.04 0.98 0.79 0.58 0.48 0.56 0.70 0.58 0.57 0.77 0.71 0.46 0.43 0.43 0.37 0.36 0.40 0.54 0.54 0.67 0.77 0.57 0.44 0.33 0.29 0.21 0.22 0.21 0.33 0.27 0.14 0.13 0.08 0.05 0.04 0.06 0.09 0.17 0.30 0.51
1.14 1.10 1.10 0.94 0.87 1.04 1.14 1.06 0.88 0.82 0.63 0.74 0.74 0.76 0.88 0.91 0.41 0.34 0.39 0.43 0.56 0.59 0.57 0.61 0.62 0.43 0.27 0.24 0.16 0.16 0.16 0.26 0.38 0.27 0.15 0.07 0.03 0.03 0.03 0.04 0.09 0.20 0.36
0.89 0.88 1.09 1.06 1.00 1.18 1.34 1.20 1.08 1.02 1.10 1.13 0.67 0.78 0.81 0.80 0.70 0.47 0.32 0.33 0.46 0.66 0.85 0.67 0.60 0.35 0.27 0.21 0.16 0.12 0.10 0.09 0.19 0.34 0.34 0.13 0.04 0.04 0.05 0.04 0.04 0.05 0.09
0.71 0.76 0.74 1.09 0.96 1.22 1.46 1.41 1.23 1.05 1.22 1.26 1.19 0.90 0.69 0.57 0.53 0.53 0.45 0.46 0.60 0.54 0.45 0.39 0.39 0.37 0.42 0.44 0.32 0.18 0.09 0.16 0.14 0.13 0.24 0.31 0.20 0.06 0.05 0.06 0.05 0.04 0.05
0.57 0.77 0.91 0.90 1.17 1.42 1.50 1.55 1.73 1.59 1.37 1.20 0.99 0.82 0.87 0.83 0.62 0.63 0.60 0.45 0.41 0.45 0.54 0.65 0.51 0.44 0.44 0.60 0.65 0.56 0.24 0.21 0.17 0.13 0.09 0.16 0.25 0.24 0.13 0.09 0.10 0.10 0.11
0.49 0.72 1.09 1.31 1.22 1.27 1.63 1.60 1.75 1.76 1.83 1.72 1.42 1.14 0.78 0.77 0.66 0.66 0.61 0.65 0.56 0.34 0.39 0.56 0.75 0.65 0.57 0.44 0.42 0.41 0.33 0.22 0.19 0.17 0.11 0.08 0.12 0.19 0.16 0.15 0.14 0.15 0.16
0.48 0.51 0.87 1.35 1.50 1.48 1.60 1.85 1.83 2.00 2.02 1.97 1.85 1.61 1.29 0.94 0.67 0.70 0.75 0.76 1.03 0.94 0.82 0.68 0.58 0.50 0.43 0.60 0.56 0.52 0.46 0.45 0.40 0.22 0.11 0.11 0.09 0.07 0.10 0.07 0.10 0.13 0.17
0.86 0.79 0.99 1.25 1.48 1.45 1.48 1.64 2.02 2.11 2.24 2.48 2.18 2.04 1.73 1.25 1.04 1.08 1.13 1.16 1.00 0.70 0.69 0.60 0.48 0.56 0.51 0.47 0.50 0.58 0.46 0.44 0.44 0.38 0.27 0.18 0.10 0.06 0.07 0.06 0.05 0.09 0.11
2.17 1.75 1.69 1.54 1.46 1.50 1.71 1.82 1.82 1.82 1.68 1.62 1.92 2.15 2.14 1.75 1.49 1.18 1.15 1.26 1.57 1.21 0.51 0.28 0.41 0.51 0.60 0.67 0.49 0.58 0.61 0.51 0.50 0.43 0.38 0.33 0.29 0.23 0.15 0.10 0.06 0.06 0.08
3.52 3.07 2.58 2.25 1.94 1.89 1.80 1.47 1.38 1.53 1.79 1.64 1.71 1.87 1.96 1.99 1.94 1.91 1.91 1.74 1.89 2.00 1.55 0.53 0.45 0.37 0.41 0.48 0.54 0.72 0.60 0.57 0.60 0.66 0.73 0.59 0.34 0.32 0.33 0.28 0.17 0.13 0.15
2.62 3.32 3.31 2.75 2.51 2.06 1.99 1.86 1.50 1.30 1.38 1.81 1.89 1.86 1.88 1.83 2.10 2.12 2.00 1.93 1.75 1.82 1.65 0.89 0.86 0.77 0.67 0.55 0.49 0.60 0.64 0.65 0.68 0.78 0.90 0.97 0.87 0.63 0.43 0.39 0.35 0.23 0.16
2.32 2.21 2.46 2.86 2.57 2.52 2.14 2.08 1.94 1.86 1.87 1.74 1.73 2.01 2.22 2.06 1.90 1.65 1.72 2.05 1.89 1.64 1.86 1.61 1.44 1.43 1.16 0.91 0.82 0.76 0.69 0.68 0.69 0.82 0.81 0.84 0.90 0.80 0.69 0.56 0.50 0.44 0.31
1.42 1.55 1.84 1.99 2.12 2.51 2.37 2.29 1.93 1.55 1.80 1.82 1.89 1.86 1.91 2.18 2.25 2.06 1.82 1.55 1.52 1.60 1.55 1.58 1.53 1.61 1.72 1.34 1.35 1.54 1.54 1.34 1.35 1.12 0.86 0.81 0.86 0.98 0.99 0.90 0.80 0.78 0.74
1.49 1.43 1.43 1.63 1.82 1.77 2.03 2.25 2.40 2.10 1.73 1.54 1.48 1.70 1.73 1.85 2.17 2.33 2.38 2.22 1.91 1.76 1.58 1.63 1.71 1.72 1.69 1.73 1.63 1.67 2.16 2.01 1.62 1.26 1.11 1.12 1.19 1.02 0.97 0.95 0.95 0.84 0.80
2.03 1.80 1.67 1.44 1.45 1.79 2.16 2.09 2.13 2.14 2.02 2.01 1.70 1.52 1.77 2.05 2.06 2.02 2.23 2.39 2.48 2.40 2.36 2.30 2.23 2.32 1.98 1.39 1.39 1.52 1.90 1.90 1.92 1.79 1.59 1.45 1.44 1.53 1.49 1.38 1.23 1.13 0.95
1.74 1.55 1.79 1.38 1.31 1.24 1.93 2.08 2.10 2.13 2.02 2.02 2.19 1.99 1.92 2.19 2.12 2.25 2.32 2.24 2.21 2.44 2.41 2.25 2.25 2.19 2.04 2.03 1.85 1.78 1.98 2.23 2.12 1.76 1.69 1.61 1.55 1.50 1.51 1.52 1.81 1.57 1.34
1.31 1.42 1.49 1.33 1.01 0.86 1.16 1.13 1.39 1.44 1.76 1.97 1.96 2.02 1.91 1.92 1.83 1.49 1.85 1.90 1.87 2.08 2.26 2.15 2.15 2.15 2.15 2.14 2.10 2.22 2.19 2.29 2.38 2.27 2.27 2.29 2.12 2.07 1.89 1.80 2.02 1.50 1.42
1.37 1.13 1.05 0.96 0.94 0.97 1.00 0.91 1.04 0.78 0.82 0.87 0.83 0.79 0.76 0.80 1.21 1.25 1.20 1.53 1.82 2.16 2.42 2.55 2.79 3.03 2.99 2.66 2.56 2.47 2.29 2.25 2.11 2.11 2.37 2.80 2.59 2.55 2.27 2.05 2.55 1.75 1.47
1.07 0.97 0.88 0.86 0.77 0.72 0.98 0.82 0.81 0.56 0.70 0.76 0.73 0.79 0.87 0.66 1.30 1.13 0.72 0.86 1.13 1.37 1.93 2.02 2.05 2.17 2.22 2.00 1.82 1.97 2.48 2.84 2.78 2.30 2.04 2.13 2.13 2.40 2.44 2.25 2.19 2.34 1.89
1.23 1.19 1.12 1.06 1.12 0.76 1.06 0.95 0.92 0.75 0.91 0.93 0.90 0.99 1.62 1.24 1.63 1.29 1.12 1.12 1.34 1.45 1.41 1.43 1.48 1.45 1.35 1.35 1.64 1.42 1.60 2.35 2.85 2.79 2.32 2.34 2.18 2.24 2.55 2.45 2.19 1.97 1.81

GFSMA_prec_precacc_159.txt.gz
Total_Precipitation_Accumulation
0.42 0.45 0.43 0.47 0.86 0.82 0.89 0.54 0.48 0.56 0.53 0.54 0.46 0.33 0.22 0.47 0.47 0.57 0.72 0.85 0.91 0.87 1.01 0.92 0.71 0.70 0.62 0.42 0.30 0.23 0.27 0.32 0.32 0.42 0.43 0.25 0.21 0.26 0.40 0.53 0.59 0.37 0.27
0.56 0.60 0.53 0.44 0.62 0.62 0.69 0.60 0.34 0.49 0.63 0.54 0.52 0.35 0.11 0.33 0.47 0.70 0.94 1.16 1.23 1.12 1.21 1.22 1.04 0.72 0.50 0.50 0.39 0.28 0.21 0.21 0.32 0.33 0.37 0.29 0.19 0.23 0.22 0.26 0.37 0.38 0.26
0.76 0.63 0.66 0.51 0.44 0.47 0.44 0.55 0.53 0.53 0.54 0.55 0.48 0.46 0.27 0.17 0.22 0.51 0.93 0.85 0.85 0.76 0.83 1.34 1.24 0.79 0.47 0.41 0.27 0.26 0.23 0.19 0.27 0.32 0.33 0.34 0.22 0.16 0.22 0.23 0.26 0.33 0.34
0.87 0.80 0.70 0.55 0.54 0.46 0.31 0.43 0.34 0.44 0.48 0.43 0.36 0.35 0.29 0.16 0.10 0.22 0.59 0.63 0.66 0.52 0.54 0.55 0.85 0.77 0.44 0.31 0.25 0.18 0.17 0.18 0.19 0.21 0.19 0.22 0.36 0.27 0.20 0.23 0.35 0.40 0.41
0.93 0.81 0.75 0.56 0.64 0.62 0.36 0.35 0.33 0.36 0.40 0.38 0.31 0.35 0.38 0.25 0.15 0.16 0.33 0.56 0.56 0.60 0.41 0.42 0.39 0.40 0.43 0.38 0.37 0.29 0.18 0.12 0.14 0.14 0.14 0.09 0.10 0.29 0.42 0.34 0.34 0.47 0.49
1.13 0.96 0.96 0.87 0.78 0.61 0.52 0.55 0.48 0.45 0.39 0.30 0.36 0.39 0.30 0.31 0.29 0.29 0.30 0.38 0.61 0.65 0.71 0.50 0.50 0.43 0.36 0.39 0.49 0.46 0.34 0.24 0.08 0.10 0.10 0.08 0.07 0.08 0.21 0.26 0.41 0.59 0.68
1.32 1.08 1.08 1.04 0.98 0.79 0.58 0.48 0.56 0.70 0.58 0.57 0.77 0.71 0.46 0.43 0.43 0.37 0.36 0.40 0.54 0.54 0.67 0.77 0.58 0.53 0.40 0.41 0.41 0.43 0.36 0.37 0.27 0.14 0.14 0.08 0.05 0.04 0.09 0.14 0.21 0.33 0.53
1.14 1.10 1.10 0.94 0.87 1.04 1.14 1.06 0.88 0.82 0.63 0.74 0.74 0.77 0.88 0.91 0.41 0.34 0.39 0.43 0.56 0.59 0.57 0.61 0.63 0.45 0.32 0.33 0.36 0.46 0.42 0.43 0.43 0.27 0.16 0.07 0.03 0.04 0.03 0.08 0.12 0.26 0.43
0.89 0.88 1.09 1.06 1.00 1.18 1.34 1.20 1.08 1.02 1.10 1.13 0.68 0.79 0.82 0.81 0.70 0.47 0.32 0.33 0.46 0.66 0.85 0.68 0.63 0.37 0.30 0.31 0.31 0.31 0.28 0.23 0.29 0.38 0.34 0.13 0.04 0.04 0.05 0.07 0.07 0.09 0.13
0.71 0.76 0.74 1.09 0.96 1.22 1.47 1.41 1.24 1.05 1.22 1.27 1.19 0.90 0.70 0.58 0.54 0.53 0.45 0.46 0.60 0.54 0.45 0.39 0.40 0.38 0.43 0.46 0.40 0.36 0.33 0.39 0.28 0.24 0.32 0.35 0.20 0.06 0.05 0.07 0.05 0.06 0.08
0.57 0.77 0.91 0.90 1.17 1.42 1.50 1.55 1.73 1.59 1.37 1.20 0.99 0.83 0.88 0.83 0.63 0.64 0.60 0.45 0.41 0.45 0.54 0.65 0.51 0.45 0.47 0.62 0.65 0.62 0.51 0.57 0.61 0.35 0.23 0.27 0.29 0.25 0.16 0.09 0.10 0.10 0.12
0.49 0.72 1.09 1.31 1.22 1.27 1.63 1.60 1.75 1.77 1.83 1.72 1.43 1.14 0.78 0.78 0.67 0.67 0.62 0.66 0.56 0.34 0.39 0.56 0.75 0.65 0.59 0.48 0.43 0.42 0.41 0.39 0.44 0.57 0.37 0.24 0.23 0.29 0.29 0.22 0.16 0.15 0.16
0.48 0.51 0.87 1.35 1.50 1.48 1.60 1.85 1.83 2.00 2.03 1.97 1.86 1.61 1.29 0.95 0.70 0.72 0.78 0.77 1.04 0.94 0.82 0.68 0.58 0.50 0.43 0.62 0.58 0.52 0.47 0.47 0.45 0.52 0.64 0.61 0.36 0.23 0.24 0.19 0.17 0.16 0.18
0.86 0.79 0.99 1.25 1.48 1.45 1.48 1.64 2.02 2.11 2.25 2.48 2.19 2.05 1.73 1.26 1.06 1.10 1.15 1.18 1.01 0.71 0.69 0.60 0.48 0.56 0.51 0.49 0.52 0.62 0.48 0.48 0.49 0.49 0.51 0.59 0.42 0.36 0.22 0.18 0.13 0.14 0.14
2.17 1.75 1.69 1.54 1.46 1.50 1.71 1.82 1.82 1.82 1.68 1.62 1.92 2.15 2.14 1.76 1.50 1.19 1.16 1.28 1.59 1.22 0.52 0.28 0.41 0.51 0.60 0.70 0.53 0.63 0.65 0.56 0.58 0.51 0.45 0.41 0.46 0.44 0.32 0.29 0.23 0.16 0.12
3.52 3.07 2.58 2.25 1.94 1.89 1.80 1.47 1.38 1.53 1.79 1.64 1.71 1.87 1.96 2.00 1.94 1.91 1.92 1.74 1.90 2.01 1.56 0.53 0.45 0.37 0.41 0.48 0.57 0.76 0.65 0.63 0.69 0.76 0.83 0.68 0.43 0.41 0.43 0.41 0.35 0.29 0.25
2.62 3.32 3.31 2.75 2.51 2.06 1.99 1.86 1.50 1.30 1.38 1.81 1.89 1.86 1.88 1.83 2.10 2.13 2.01 1.93 1.76 1.83 1.66 0.90 0.86 0.78 0.67 0.56 0.50 0.61 0.65 0.68 0.71 0.84 0.96 1.09 0.99 0.80 0.67 0.67 0.57 0.38 0.29
2.32 2.21 2.46 2.86 2.57 2.52 2.14 2.08 1.94 1.86 1.87 1.74 1.73 2.01 2.23 2.06 1.91 1.66 1.73 2.06 1.90 1.66 1.88 1.62 1.44 1.44 1.19 0.94 0.86 0.79 0.70 0.68 0.69 0.84 0.86 1.06 1.21 1.04 1.00 1.08 1.13 0.87 0.55
1.42 1.55 1.84 1.99 2.12 2.51 2.37 2.29 1.93 1.55 1.80 1.82 1.90 1.87 1.92 2.19 2.25 2.08 1.86 1.59 1.55 1.66 1.63 1.62 1.56 1.63 1.80 1.42 1.47 1.64 1.57 1.36 1.36 1.13 0.87 0.84 0.94 1.11 1.13 1.12 1.11 1.05 0.91
1.49 1.43 1.43 1.63 1.82 1.77 2.03 2.25 2.40 2.10 1.73 1.54 1.48 1.70 1.74 1.85 2.18 2.34 2.44 2.38 2.08 1.87 1.70 1.75 1.74 1.77 1.74 1.82 1.73 1.85 2.31 2.07 1.63 1.28 1.15 1.15 1.21 1.05 1.01 1.00 1.06 0.97 0.93
2.03 1.80 1.67 1.44 1.45 1.79 2.16 2.09 2.13 2.14 2.03 2.01 1.70 1.52 1.77 2.05 2.06 2.03 2.27 2.51 2.66 2.61 2.62 2.51 2.37 2.37 2.04 1.44 1.49 1.61 2.02 2.03 1.99 1.82 1.60 1.47 1.46 1.55 1.51 1.39 1.23 1.16 1.04
1.74 1.55 1.79 1.38 1.31 1.24 1.93 2.08 2.10 2.13 2.02 2.03 2.19 1.99 1.92 2.19 2.12 2.25 2.32 2.29 2.34 2.66 2.61 2.48 2.51 2.41 2.14 2.09 1.94 1.85 2.02 2.25 2.13 1.76 1.71 1.64 1.56 1.50 1.51 1.53 1.81 1.59 1.41
1.31 1.42 1.49 1.33 1.01 0.86 1.16 1.13 1.39 1.44 1.76 1.98 1.96 2.02 1.91 1.92 1.83 1.49 1.85 1.90 1.89 2.15 2.43 2.32 2.29 2.27 2.28 2.23 2.16 2.27 2.26 2.35 2.42 2.29 2.27 2.29 2.12 2.07 1.89 1.81 2.03 1.50 1.48
1.37 1.13 1.05 0.96 0.94 0.97 1.00 0.91 1.04 0.78 0.82 0.87 0.83 0.79 0.76 0.80 1.21 1.25 1.20 1.53 1.82 2.16 2.45 2.62 2.88 3.12 3.09 2.73 2.62 2.54 2.32 2.28 2.14 2.13 2.38 2.80 2.59 2.57 2.27 2.05 2.56 1.75 1.49
1.07 0.97 0.88 0.86 0.77 0.72 0.99 0.82 0.81 0.56 0.70 0.76 0.73 0.79 0.87 0.66 1.30 1.13 0.72 0.86 1.13 1.37 1.93 2.02 2.06 2.19 2.23 2.02 1.85 1.99 2.51 2.86 2.80 2.33 2.07 2.15 2.15 2.43 2.46 2.26 2.20 2.35 1.90
1.23 1.19 1.12 1.06 1.12 0.76 1.06 0.95 0.92 0.75 0.91 0.93 0.90 0.99 1.62 1.24 1.63 1.29 1.12 1.12 1.34 1.45 1.41 1.43 1.48 1.45 1.35 1.35 1.64 1.42 1.62 2.37 2.88 2.82 2.35 2.38 2.22 2.28 2.58 2.47 2.21 2.00 1.84

GFSMA_prec_precacc_162.txt.gz
Total_Precipitation_Accumulation
0.42 0.45 0.43 0.47 0.86 0.82 0.89 0.54 0.48 0.56 0.53 0.54 0.46 0.33 0.22 0.47 0.47 0.57 0.72 0.85 0.91 0.87 1.01 0.94 0.77 0.78 0.67 0.45 0.31 0.24 0.27 0.32 0.33 0.47 0.48 0.26 0.21 0.27 0.43 0.58 0.74 0.57 0.46
0.56 0.60 0.53 0.44 0.62 0.62 0.69 0.60 0.34 0.49 0.63 0.54 0.52 0.35 0.11 0.33 0.47 0.70 0.94 1.16 1.23 1.12 1.22 1.23 1.07 0.77 0.58 0.59 0.43 0.29 0.22 0.21 0.33 0.35 0.41 0.33 0.21 0.23 0.23 0.30 0.49 0.53 0.39
0.76 0.63 0.66 0.51 0.44 0.47 0.44 0.55 0.53 0.53 0.54 0.55 0.48 0.46 0.27 0.17 0.22 0.51 0.93 0.85 0.85 0.76 0.83 1.35 1.25 0.81 0.54 0.55 0.39 0.28 0.26 0.21 0.27 0.32 0.34 0.36 0.26 0.18 0.22 0.23 0.30 0.41 0.43
0.87 0.80 0.70 0.55 0.54 0.46 0.31 0.43 0.34 0.44 0.48 0.43 0.36 0.35 0.29 0.16 0.10 0.22 0.59 0.63 0.66 0.52 0.54 0.55 0.85 0.78 0.47 0.37 0.36 0.22 0.22 0.22 0.20 0.21 0.19 0.22 0.39 0.33 0.23 0.24 0.35 0.41 0.42
0.93 0.81 0.75 0.56 0.64 0.62 0.36 0.35 0.33 0.36 0.40 0.38 0.31 0.35 0.38 0.25 0.15 0.16 0.33 0.56 0.56 0.60 0.41 0.42 0.39 0.40 0.43 0.41 0.44 0.37 0.29 0.26 0.17 0.15 0.14 0.09 0.10 0.33 0.52 0.41 0.35 0.47 0.50
1.13 0.96 0.96 0.87 0.78 0.61 0.52 0.55 0.48 0.45 0.39 0.30 0.36 0.39 0.30 0.31 0.29 0.29 0.30 0.38 0.61 0.65 0.71 0.50 0.50 0.43 0.36 0.40 0.53 0.60 0.44 0.35 0.16 0.13 0.11 0.08 0.07 0.09 0.31 0.42 0.50 0.62 0.68
1.32 1.08 1.08 1.04 0.98 0.79 0.58 0.48 0.56 0.70 0.58 0.57 0.77 0.71 0.46 0.43 0.43 0.37 0.36 0.40 0.54 0.54 0.67 0.77 0.58 0.53 0.41 0.43 0.44 0.57 0.53 0.47 0.36 0.21 0.16 0.08 0.05 0.04 0.13 0.26 0.36 0.46 0.59
1.14 1.10 1.10 0.94 0.87 1.04 1.14 1.06 0.88 0.82 0.63 0.74 0.75 0.77 0.88 0.91 0.41 0.34 0.39 0.43 0.56 0.59 0.57 0.61 0.63 0.45 0.32 0.35 0.41 0.56 0.61 0.64 0.62 0.41 0.27 0.08 0.03 0.04 0.04 0.10 0.22 0.39 0.54
0.89 0.88 1.09 1.06 1.00 1.18 1.34 1.20 1.08 1.02 1.10 1.13 0.68 0.80 0.83 0.81 0.70 0.47 0.32 0.33 0.46 0.66 0.85 0.68 0.63 0.38 0.31 0.31 0.34 0.38 0.39 0.41 0.52 0.55 0.51 0.20 0.04 0.04 0.05 0.07 0.10 0.17 0.27
0.71 0.76 0.74 1.09 0.96 1.22 1.47 1.41 1.24 1.05 1.23 1.27 1.20 0.90 0.71 0.60 0.56 0.54 0.45 0.46 0.60 0.54 0.45 0.39 0.40 0.38 0.44 0.47 0.41 0.37 0.38 0.51 0.43 0.39 0.50 0.51 0.25 0.07 0.05 0.07 0.06 0.11 0.19
0.57 0.77 0.91 0.90 1.17 1.42 1.50 1.55 1.74 1.59 1.38 1.21 1.00 0.83 0.88 0.83 0.63 0.65 0.60 0.45 0.41 0.45 0.54 0.65 0.51 0.45 0.47 0.63 0.67 0.64 0.52 0.68 0.89 0.72 0.49 0.51 0.52 0.39 0.20 0.10 0.10 0.11 0.17
0.49 0.72 1.09 1.31 1.22 1.27 1.63 1.60 1.75 1.77 1.83 1.73 1.43 1.15 0.79 0.79 0.68 0.68 0.63 0.66 0.56 0.34 0.39 0.56 0.75 0.65 0.59 0.48 0.44 0.43 0.42 0.42 0.53 0.92 0.90 0.60 0.64 0.54 0.46 0.31 0.19 0.17 0.21
0.48 0.51 0.87 1.35 1.50 1.48 1.60 1.85 1.83 2.00 2.03 1.97 1.87 1.62 1.29 0.96 0.71 0.73 0.78 0.78 1.04 0.94 0.82 0.68 0.58 0.50 0.43 0.62 0.58 0.52 0.47 0.48 0.47 0.55 0.74 0.84 0.72 0.74 0.69 0.36 0.28 0.25 0.26
0.86 0.79 0.99 1.25 1.48 1.45 1.48 1.64 2.02 2.11 2.25 2.48 2.19 2.05 1.74 1.26 1.06 1.11 1.16 1.19 1.02 0.71 0.69 0.60 0.48 0.56 0.51 0.49 0.53 0.62 0.48 0.48 0.50 0.50 0.54 0.64 0.79 0.87 0.97 0.69 0.33 0.29 0.29
2.17 1.75 1.69 1.54 1.46 1.50 1.71 1.82 1.82 1.82 1.68 1.62 1.92 2.16 2.14 1.76 1.50 1.19 1.17 1.29 1.61 1.24 0.52 0.28 0.41 0.51 0.60 0.70 0.53 0.63 0.65 0.57 0.58 0.52 0.48 0.45 0.49 0.53 0.65 0.86 0.80 0.47 0.22
3.52 3.07 2.58 2.25 1.94 1.89 1.80 1.47 1.38 1.53 1.79 1.64 1.71 1.88 1.96 2.00 1.94 1.91 1.92 1.75 1.91 2.02 1.57 0.53 0.45 0.37 0.41 0.48 0.58 0.77 0.68 0.67 0.70 0.78 0.86 0.73 0.48 0.44 0.46 0.46 0.49 0.51 0.38
2.62 3.32 3.31 2.75 2.51 2.06 1.99 1.86 1.50 1.30 1.38 1.81 1.89 1.87 1.88 1.83 2.11 2.13 2.01 1.94 1.76 1.84 1.67 0.90 0.86 0.78 0.68 0.56 0.53 0.66 0.67 0.69 0.73 0.85 0.98 1.13 1.08 0.91 0.77 0.74 0.61 0.49 0.45
2.32 2.21 2.46 2.86 2.57 2.52 2.14 2.08 1.94 1.86 1.88 1.74 1.73 2.02 2.23 2.07 1.91 1.66 1.74 2.06 1.90 1.67 1.89 1.62 1.45 1.45 1.20 0.96 0.91 0.87 0.76 0.70 0.70 0.86 0.88 1.09 1.26 1.11 1.09 1.19 1.21 1.20 0.94
1.42 1.55 1.84 1.99 2.12 2.51 2.37 2.29 1.93 1.55 1.80 1.82 1.90 1.87 1.92 2.19 2.26 2.08 1.86 1.60 1.55 1.66 1.64 1.63 1.56 1.64 1.83 1.49 1.53 1.72 1.70 1.42 1.37 1.16 0.89 0.87 1.01 1.20 1.20 1.18 1.16 1.17 1.13
1.49 1.43 1.43 1.63 1.82 1.77 2.03 2.25 2.40 2.10 1.73 1.54 1.48 1.70 1.74 1.85 2.18 2.35 2.44 2.39 2.09 1.88 1.70 1.77 1.80 1.80 1.77 1.91 1.84 1.94 2.44 2.18 1.69 1.30 1.17 1.17 1.24 1.08 1.09 1.08 1.11 1.03 0.99
2.03 1.80 1.67 1.44 1.45 1.79 2.16 2.09 2.13 2.14 2.03 2.01 1.70 1.52 1.77 2.05 2.06 2.03 2.27 2.52 2.67 2.62 2.64 2.54 2.45 2.47 2.12 1.49 1.64 1.81 2.15 2.20 2.20 1.94 1.62 1.47 1.47 1.56 1.52 1.41 1.25 1.17 1.06
1.74 1.55 1.79 1.38 1.31 1.24 1.93 2.08 2.10 2.13 2.02 2.03 2.19 1.99 1.92 2.19 2.12 2.25 2.32 2.29 2.34 2.66 2.63 2.53 2.66 2.60 2.34 2.29 2.05 2.07 2.24 2.40 2.29 1.99 1.93 1.74 1.59 1.53 1.53 1.54 1.82 1.59 1.41
1.31 1.42 1.49 1.33 1.01 0.86 1.16 1.13 1.39 1.44 1.76 1.98 1.96 2.02 1.91 1.92 1.83 1.49 1.85 1.90 1.89 2.16 2.45 2.36 2.35 2.43 2.53 2.50 2.39 2.41 2.43 2.56 2.59 2.42 2.36 2.42 2.28 2.19 1.93 1.83 2.03 1.51 1.48
1.37 1.13 1.05 0.96 0.94 0.97 1.00 0.91 1.04 0.78 0.82 0.87 0.83 0.79 0.76 0.80 1.21 1.25 1.20 1.53 1.82 2.17 2.46 2.65 2.94 3.19 3.21 2.93 2.82 2.73 2.47 2.42 2.28 2.26 2.47 2.86 2.64 2.64 2.31 2.07 2.57 1.76 1.49
1.07 0.97 0.88 0.86 0.77 0.72 0.99 0.82 0.81 0.56 0.70 0.76 0.73 0.79 0.87 0.66 1.30 1.13 0.72 0.86 1.13 1.37 1.93 2.03 2.08 2.22 2.26 2.05 1.94 2.11 2.63 2.98 2.90 2.41 2.13 2.21 2.20 2.47 2.47 2.27 2.21 2.35 1.90
1.23 1.19 1.12 1.06 1.12 0.76 1.06 0.95 0.92 0.75 0.91 0.93 0.90 0.99 1.62 1.24 1.63 1.29 1.12 1.12 1.34 1.45 1.41 1.43 1.48 1.45 1.37 1.37 1.65 1.46 1.69 2.45 2.97 2.89 2.41 2.43 2.26 2.31 2.59 2.48 2.22 2.00 1.84

GFSMA_prec_precacc_168.txt.gz
Total_Precipitation_Accumulation
0.42 0.45 0.43 0.47 0.86 0.82 0.89 0.54 0.48 0.56 0.53 0.54 0.46 0.33 0.22 0.47 0.47 0.57 0.72 0.85 0.91 0.87 1.02 0.97 0.81 0.85 0.72 0.50 0.34 0.26 0.29 0.35 0.35 0.48 0.48 0.27 0.21 0.28 0.46 0.66 0.80 0.68 0.74
0.56 0.60 0.53 0.44 0.62 0.62 0.69 0.60 0.34 0.49 0.63 0.54 0.52 0.35 0.11 0.33 0.47 0.70 0.94 1.16 1.23 1.12 1.22 1.24 1.09 0.80 0.64 0.67 0.51 0.33 0.25 0.22 0.34 0.37 0.42 0.34 0.22 0.23 0.24 0.33 0.57 0.63 0.61
0.76 0.63 0.66 0.51 0.44 0.47 0.44 0.55 0.53 0.53 0.54 0.55 0.48 0.46 0.27 0.17 0.22 0.51 0.93 0.85 0.85 0.76 0.83 1.35 1.25 0.82 0.55 0.60 0.47 0.35 0.30 0.23 0.27 0.32 0.34 0.37 0.28 0.19 0.23 0.25 0.35 0.51 0.61
0.87 0.80 0.70 0.55 0.54 0.46 0.31 0.43 0.34 0.44 0.48 0.43 0.36 0.35 0.29 0.16 0.10 0.22 0.59 0.63 0.66 0.52 0.54 0.55 0.85 0.78 0.47 0.38 0.41 0.35 0.35 0.27 0.21 0.21 0.19 0.23 0.39 0.33 0.23 0.24 0.37 0.48 0.54
0.93 0.81 0.75 0.56 0.64 0.62 0.36 0.35 0.33 0.36 0.40 0.38 0.31 0.35 0.38 0.25 0.15 0.16 0.33 0.56 0.56 0.60 0.41 0.42 0.39 0.40 0.43 0.42 0.46 0.47 0.48 0.48 0.31 0.22 0.17 0.17 0.18 0.38 0.53 0.41 0.36 0.49 0.55
1.13 0.96 0.96 0.87 0.78 0.61 0.52 0.55 0.48 0.45 0.39 0.30 0.36 0.39 0.30 0.31 0.29 0.29 0.30 0.38 0.61 0.65 0.71 0.50 0.50 0.43 0.36 0.40 0.56 0.64 0.59 0.56 0.36 0.35 0.26 0.19 0.19 0.20 0.36 0.45 0.51 0.62 0.69
1.32 1.08 1.08 1.04 0.98 0.79 0.58 0.48 0.56 0.70 0.58 0.57 0.77 0.71 0.46 0.43 0.43 0.37 0.36 0.40 0.54 0.54 0.67 0.77 0.58 0.53 0.41 0.43 0.45 0.60 0.64 0.68 0.57 0.45 0.46 0.29 0.16 0.14 0.20 0.30 0.38 0.48 0.61
1.14 1.10 1.10 0.94 0.87 1.04 1.14 1.06 0.88 0.82 0.63 0.74 0.75 0.77 0.89 0.91 0.41 0.34 0.39 0.43 0.56 0.59 0.57 0.61 0.63 0.45 0.32 0.35 0.41 0.57 0.66 0.79 0.81 0.67 0.68 0.56 0.35 0.15 0.13 0.15 0.24 0.43 0.57
0.89 0.88 1.09 1.06 1.00 1.18 1.34 1.20 1.08 1.02 1.10 1.13 0.68 0.81 0.84 0.82 0.70 0.47 0.32 0.33 0.46 0.66 0.85 0.68 0.63 0.38 0.31 0.31 0.34 0.38 0.40 0.47 0.67 0.78 0.91 0.78 0.56 0.26 0.16 0.14 0.14 0.20 0.33
0.71 0.76 0.74 1.09 0.96 1.22 1.47 1.41 1.24 1.05 1.23 1.27 1.20 0.91 0.72 0.62 0.58 0.55 0.45 0.46 0.60 0.54 0.45 0.39 0.40 0.38 0.44 0.47 0.41 0.38 0.38 0.52 0.47 0.50 0.71 1.05 0.83 0.50 0.23 0.15 0.12 0.15 0.22
0.57 0.77 0.91 0.90 1.17 1.42 1.50 1.55 1.74 1.59 1.38 1.21 1.00 0.84 0.88 0.83 0.64 0.67 0.60 0.45 0.41 0.45 0.54 0.65 0.51 0.45 0.47 0.63 0.67 0.64 0.53 0.69 0.89 0.75 0.57 0.71 0.91 1.04 0.80 0.45 0.36 0.25 0.24
0.49 0.72 1.09 1.31 1.22 1.27 1.63 1.60 1.75 1.77 1.83 1.73 1.44 1.15 0.80 0.81 0.69 0.70 0.65 0.66 0.56 0.34 0.39 0.56 0.75 0.65 0.59 0.48 0.44 0.44 0.42 0.42 0.53 0.92 0.95 0.79 0.88 1.05 1.42 1.04 0.74 0.69 0.37
0.48 0.51 0.87 1.35 1.50 1.48 1.60 1.85 1.83 2.00 2.03 1.98 1.87 1.62 1.30 0.97 0.72 0.75 0.80 0.78 1.04 0.94 0.82 0.68 0.58 0.50 0.43 0.62 0.58 0.53 0.47 0.49 0.47 0.56 0.74 0.87 0.83 0.98 1.28 1.88 1.63 0.89 0.67
0.86 0.79 0.99 1.25 1.48 1.45 1.48 1.64 2.02 2.11 2.25 2.48 2.19 2.05 1.74 1.27 1.07 1.12 1.19 1.22 1.03 0.71 0.69 0.60 0.48 0.56 0.51 0.49 0.53 0.62 0.50 0.49 0.50 0.50 0.54 0.65 0.80 0.89 1.10 1.43 2.11 2.29 1.22
2.17 1.75 1.69 1.54 1.46 1.50 1.71 1.82 1.82 1.82 1.68 1.62 1.92 2.16 2.14 1.76 1.50 1.20 1.18 1.31 1.66 1.26 0.52 0.28 0.41 0.51 0.60 0.70 0.55 0.64 0.66 0.59 0.59 0.52 0.48 0.45 0.50 0.54 0.66 0.96 1.29 1.49 1.49
3.52 3.07 2.58 2.25 1.94 1.89 1.80 1.47 1.38 1.53 1.79 1.64 1.71 1.88 1.96 2.00 1.94 1.91 1.93 1.76 1.93 2.06 1.60 0.53 0.45 0.37 0.41 0.48 0.59 0.78 0.70 0.69 0.71 0.78 0.86 0.73 0.49 0.47 0.47 0.48 0.55 0.66 0.79
2.62 3.32 3.31 2.75 2.51 2.06 1.99 1.86 1.50 1.30 1.38 1.81 1.89 1.87 1.88 1.83 2.11 2.13 2.01 1.94 1.77 1.85 1.69 0.90 0.86 0.78 0.69 0.57 0.54 0.67 0.70 0.70 0.75 0.87 0.99 1.15 1.10 0.94 0.81 0.76 0.65 0.51 0.48
2.32 2.21 2.46 2.86 2.57 2.52 2.14 2.08 1.94 1.86 1.88 1.74 1.73 2.02 2.23 2.07 1.91 1.66 1.74 2.06 1.91 1.67 1.90 1.63 1.45 1.45 1.20 0.98 0.92 0.90 0.78 0.75 0.73 0.91 0.92 1.13 1.31 1.15 1.14 1.26 1.28 1.25 0.97
1.42 1.55 1.84 1.99 2.12 2.51 2.37 2.29 1.93 1.55 1.80 1.82 1.90 1.88 1.92 2.19 2.26 2.09 1.87 1.60 1.56 1.66 1.64 1.64 1.57 1.64 1.83 1.50 1.55 1.75 1.73 1.48 1.43 1.25 0.95 0.93 1.09 1.29 1.28 1.29 1.25 1.24 1.19
1.49 1.43 1.43 1.63 1.82 1.77 2.03 2.25 2.40 2.10 1.73 1.54 1.48 1.70 1.74 1.85 2.18 2.35 2.45 2.40 2.09 1.88 1.70 1.77 1.80 1.81 1.78 1.92 1.88 1.98 2.51 2.28 1.80 1.39 1.25 1.27 1.33 1.18 1.21 1.18 1.26 1.21 1.09
2.03 1.80 1.67 1.44 1.45 1.79 2.16 2.09 2.13 2.14 2.03 2.01 1.70 1.52 1.77 2.05 2.06 2.03 2.28 2.53 2.68 2.63 2.64 2.54 2.45 2.48 2.14 1.52 1.70 1.91 2.28 2.34 2.34 2.09 1.76 1.54 1.52 1.64 1.60 1.53 1.40 1.31 1.25
1.74 1.55 1.79 1.38 1.31 1.24 1.93 2.08 2.10 2.13 2.03 2.03 2.19 1.99 1.92 2.19 2.12 2.25 2.32 2.30 2.35 2.67 2.64 2.53 2.67 2.61 2.37 2.33 2.11 2.19 2.46 2.56 2.46 2.20 2.23 1.95 1.68 1.59 1.67 1.71 1.98 1.76 1.54
1.31 1.42 1.49 1.33 1.01 0.86 1.16 1.13 1.39 1.44 1.76 1.98 1.96 2.02 1.91 1.92 1.83 1.49 1.85 1.90 1.89 2.16 2.46 2.38 2.37 2.47 2.57 2.58 2.50 2.50 2.58 2.86 2.86 2.66 2.63 2.80 2.66 2.48 2.11 2.01 2.28 1.69 1.61
1.37 1.13 1.05 0.96 0.94 0.97 1.00 0.91 1.04 0.78 0.82 0.87 0.83 0.79 0.76 0.80 1.21 1.25 1.20 1.53 1.82 2.17 2.46 2.66 2.96 3.22 3.25 2.99 2.92 2.89 2.64 2.64 2.62 2.56 2.75 3.14 2.96 3.07 2.85 2.49 2.83 2.02 1.73
1.07 0.97 0.88 0.86 0.77 0.72 0.99 0.82 0.81 0.56 0.70 0.76 0.73 0.79 0.87 0.66 1.30 1.13 0.72 0.86 1.13 1.37 1.93 2.03 2.08 2.22 2.26 2.06 1.97 2.16 2.72 3.11 3.04 2.59 2.33 2.47 2.47 2.77 2.75 2.61 2.63 2.69 2.19
1.23 1.19 1.12 1.06 1.12 0.76 1.06 0.95 0.92 0.75 0.91 0.93 0.90 1.00 1.62 1.24 1.63 1.29 1.12 1.12 1.34 1.45 1.41 1.43 1.48 1.45 1.37 1.37 1.65 1.47 1.72 2.50 3.06 2.98 2.50 2.57 2.43 2.51 2.84 2.67 2.37 2.20 2.06

GFSMA_prec_precacc_171.txt.gz
Total_Precipitation_Accumulation
0.42 0.45 0.43 0.47 0.86 0.82 0.89 0.54 0.48 0.56 0.53 0.54 0.46 0.33 0.22 0.47 0.47 0.57 0.72 0.85 0.91 0.87 1.02 0.97 0.81 0.85 0.72 0.50 0.34 0.28 0.33 0.39 0.37 0.49 0.48 0.27 0.21 0.28 0.46 0.66 0.80 0.68 0.75
0.56 0.60 0.53 0.44 0.62 0.62 0.69 0.60 0.34 0.49 0.63 0.54 0.52 0.35 0.11 0.33 0.47 0.70 0.94 1.16 1.23 1.12 1.22 1.24 1.09 0.80 0.64 0.67 0.51 0.34 0.29 0.27 0.38 0.39 0.42 0.34 0.22 0.24 0.24 0.33 0.57 0.63 0.62
0.76 0.63 0.66 0.51 0.44 0.47 0.44 0.55 0.53 0.53 0.54 0.55 0.48 0.46 0.27 0.17 0.22 0.51 0.93 0.85 0.85 0.76 0.83 1.35 1.25 0.82 0.55 0.60 0.47 0.36 0.32 0.27 0.33 0.37 0.36 0.37 0.29 0.23 0.24 0.25 0.35 0.51 0.62
0.87 0.80 0.70 0.55 0.54 0.46 0.31 0.43 0.34 0.44 0.48 0.43 0.36 0.35 0.29 0.16 0.10 0.22 0.59 0.63 0.66 0.52 0.54 0.55 0.85 0.78 0.47 0.38 0.41 0.35 0.36 0.29 0.27 0.28 0.24 0.28 0.42 0.38 0.28 0.26 0.37 0.48 0.54
0.93 0.81 0.75 0.56 0.64 0.62 0.36 0.35 0.33 0.36 0.40 0.38 0.31 0.35 0.38 0.25 0.15 0.16 0.33 0.56 0.56 0.60 0.41 0.42 0.39 0.40 0.43 0.42 0.46 0.47 0.48 0.49 0.35 0.34 0.28 0.32 0.21 0.40 0.59 0.46 0.37 0.49 0.56
1.13 0.96 0.96 0.87 0.78 0.61 0.52 0.55 0.48 0.45 0.39 0.30 0.36 0.39 0.30 0.31 0.29 0.29 0.30 0.38 0.61 0.65 0.71 0.50 0.50 0.43 0.36 0.40 0.56 0.64 0.59 0.56 0.39 0.43 0.37 0.34 0.33 0.30 0.45 0.53 0.56 0.64 0.69
1.32 1.08 1.08 1.04 0.98 0.79 0.58 0.48 0.56 0.70 0.58 0.57 0.77 0.71 0.46 0.43 0.43 0.37 0.36 0.40 0.54 0.54 0.67 0.77 0.58 0.53 0.41 0.43 0.45 0.60 0.64 0.68 0.57 0.50 0.55 0.42 0.43 0.39 0.40 0.47 0.50 0.55 0.62
1.14 1.10 1.10 0.94 0.87 1.04 1.14 1.06 0.88 0.82 0.63 0.74 0.75 0.77 0.89 0.91 0.41 0.34 0.39 0.43 0.56 0.59 0.57 0.61 0.63 0.45 0.32 0.35 0.41 0.57 0.66 0.79 0.82 0.68 0.72 0.67 0.62 0.44 0.35 0.34 0.38 0.53 0.61
0.89 0.88 1.09 1.06 1.00 1.18 1.34 1.20 1.08 1.02 1.10 1.13 0.68 0.81 0.85 0.82 0.70 0.47 0.32 0.33 0.46 0.66 0.85 0.68 0.63 0.38 0.31 0.31 0.34 0.38 0.40 0.47 0.67 0.78 0.91 0.80 0.69 0.46 0.35 0.31 0.27 0.29 0.40
0.71 0.76 0.74 1.09 0.96 1.22 1.47 1.41 1.24 1.05 1.23 1.27 1.20 0.91 0.72 0.62 0.59 0.55 0.45 0.46 0.60 0.54 0.45 0.39 0.40 0.38 0.44 0.47 0.41 0.38 0.39 0.52 0.47 0.50 0.71 1.05 0.85 0.54 0.32 0.24 0.21 0.23 0.29
0.57 0.77 0.91 0.90 1.17 1.42 1.50 1.55 1.74 1.59 1.38 1.21 1.00 0.84 0.88 0.83 0.64 0.67 0.60 0.45 0.41 0.45 0.54 0.65 0.51 0.46 0.47 0.63 0.68 0.66 0.55 0.69 0.89 0.75 0.57 0.71 0.91 1.06 0.85 0.65 0.52 0.36 0.33
0.49 0.72 1.09 1.31 1.22 1.27 1.63 1.60 1.75 1.77 1.83 1.73 1.44 1.15 0.80 0.81 0.70 0.71 0.65 0.66 0.56 0.34 0.39 0.56 0.75 0.65 0.59 0.48 0.45 0.45 0.44 0.42 0.53 0.92 0.95 0.79 0.88 1.06 1.43 1.19 1.20 1.16 0.89
0.48 0.51 0.87 1.35 1.50 1.48 1.60 1.85 1.83 2.00 2.03 1.98 1.87 1.62 1.30 0.97 0.72 0.75 0.81 0.79 1.04 0.94 0.82 0.68 0.58 0.50 0.43 0.62 0.58 0.53 0.49 0.50 0.47 0.56 0.74 0.87 0.83 0.98 1.28 1.90 1.86 1.56 1.43
0.86 0.79 0.99 1.25 1.48 1.45 1.48 1.64 2.02 2.11 2.25 2.48 2.19 2.05 1.74 1.27 1.07 1.12 1.19 1.23 1.04 0.71 0.69 0.60 0.48 0.56 0.51 0.49 0.53 0.63 0.52 0.51 0.50 0.50 0.54 0.65 0.80 0.89 1.10 1.43 2.13 2.71 2.43
2.17 1.75 1.69 1.54 1.46 1.50 1.71 1.82 1.82 1.82 1.68 1.62 1.92 2.16 2.14 1.76 1.50 1.20 1.18 1.32 1.67 1.27 0.53 0.28 0.41 0.51 0.60 0.70 0.55 0.64 0.67 0.61 0.59 0.52 0.48 0.46 0.50 0.54 0.66 0.96 1.30 1.51 1.62
3.52 3.07 2.58 2.25 1.94 1.89 1.80 1.47 1.38 1.53 1.79 1.64 1.71 1.88 1.96 2.00 1.94 1.91 1.93 1.76 1.93 2.07 1.62 0.53 0.45 0.37 0.41 0.48 0.60 0.79 0.72 0.71 0.73 0.78 0.87 0.74 0.50 0.48 0.48 0.49 0.56 0.68 0.81
2.62 3.32 3.31 2.75 2.51 2.06 1.99 1.86 1.50 1.30 1.38 1.81 1.89 1.87 1.88 1.83 2.11 2.13 2.01 1.94 1.77 1.86 1.70 0.90 0.86 0.78 0.69 0.57 0.54 0.68 0.71 0.71 0.76 0.89 1.00 1.16 1.11 0.95 0.82 0.78 0.66 0.54 0.52
2.32 2.21 2.46 2.86 2.57 2.52 2.14 2.08 1.94 1.86 1.88 1.74 1.73 2.02 2.23 2.07 1.91 1.66 1.74 2.06 1.91 1.67 1.90 1.63 1.45 1.45 1.20 0.98 0.92 0.90 0.79 0.75 0.73 0.92 0.92 1.14 1.32 1.17 1.15 1.27 1.30 1.28 1.01
1.42 1.55 1.84 1.99 2.12 2.51 2.37 2.29 1.93 1.55 1.80 1.82 1.90 1.88 1.92 2.19 2.26 2.09 1.87 1.60 1.56 1.66 1.64 1.64 1.57 1.64 1.83 1.50 1.55 1.75 1.74 1.48 1.43 1.25 0.95 0.93 1.09 1.30 1.30 1.31 1.27 1.26 1.21
1.49 1.43 1.43 1.63 1.82 1.77 2.03 2.25 2.40 2.10 1.73 1.54 1.48 1.70 1.74 1.85 2.18 2.35 2.45 2.40 2.09 1.88 1.70 1.77 1.80 1.81 1.78 1.92 1.88 1.99 2.52 2.30 1.80 1.39 1.26 1.28 1.34 1.19 1.22 1.20 1.29 1.25 1.11
2.04 1.81 1.67 1.44 1.46 1.79 2.16 2.09 2.14 2.14 2.03 2.02 1.70 1.52 1.77 2.05 2.06 2.03 2.28 2.53 2.68 2.63 2.64 2.54 2.45 2.48 2.14 1.52 1.70 1.91 2.29 2.37 2.36 2.10 1.77 1.55 1.54 1.67 1.65 1.56 1.43 1.37 1.31
1.74 1.55 1.79 1.38 1.31 1.24 1.93 2.08 2.10 2.14 2.03 2.03 2.20 1.99 1.92 2.19 2.12 2.25 2.32 2.30 2.35 2.67 2.65 2.54 2.67 2.62 2.37 2.34 2.11 2.19 2.47 2.57 2.47 2.21 2.25 1.97 1.70 1.61 1.72 1.80 2.04 1.81 1.60
1.31 1.42 1.49 1.33 1.01 0.86 1.16 1.13 1.39 1.44 1.76 1.98 1.96 2.02 1.91 1.92 1.83 1.49 1.85 1.90 1.89 2.16 2.46 2.39 2.37 2.47 2.58 2.59 2.51 2.50 2.59 2.88 2.88 2.67 2.63 2.82 2.67 2.50 2.14 2.05 2.33 1.73 1.69
1.37 1.13 1.05 0.96 0.94 0.97 1.00 0.91 1.04 0.78 0.82 0.87 0.83 0.79 0.76 0.80 1.21 1.25 1.20 1.53 1.82 2.17 2.46 2.66 2.96 3.22 3.25 2.99 2.92 2.90 2.65 2.66 2.66 2.57 2.75 3.16 2.97 3.09 2.88 2.53 2.86 2.05 1.79
1.07 0.97 0.88 0.86 0.77 0.72 0.99 0.82 0.81 0.56 0.70 0.76 0.73 0.79 0.87 0.66 1.30 1.13 0.72 0.86 1.13 1.37 1.93 2.03 2.08 2.22 2.26 2.06 1.97 2.16 2.72 3.11 3.05 2.61 2.34 2.49 2.49 2.79 2.79 2.63 2.65 2.72 2.21
1.23 1.19 1.12 1.06 1.12 0.76 1.06 0.95 0.92 0.75 0.91 0.93 0.90 1.00 1.62 1.24 1.63 1.29 1.12 1.12 1.34 1.45 1.41 1.43 1.48 1.45 1.37 1.37 1.65 1.47 1.72 2.50 3.06 2.98 2.50 2.58 2.44 2.53 2.88 2.71 2.38 2.21 2.09

GFSMA_prec_precacc_177.txt.gz
Total_Precipitation_Accumulation
0.42 0.45 0.43 0.47 0.86 0.82 0.89 0.54 0.48 0.56 0.53 0.54 0.46 0.33 0.22 0.47 0.47 0.57 0.72 0.85 0.91 0.87 1.02 0.97 0.81 0.85 0.72 0.50 0.34 0.28 0.34 0.42 0.44 0.58 0.58 0.39 0.35 0.36 0.49 0.68 0.80 0.68 0.75
0.56 0.60 0.53 0.44 0.62 0.62 0.69 0.60 0.34 0.49 0.63 0.54 0.52 0.35 0.11 0.33 0.47 0.70 0.94 1.16 1.23 1.12 1.22 1.24 1.09 0.80 0.64 0.67 0.51 0.34 0.29 0.28 0.41 0.46 0.49 0.48 0.44 0.40 0.33 0.37 0.59 0.64 0.62
0.76 0.63 0.66 0.51 0.44 0.47 0.44 0.55 0.53 0.53 0.54 0.55 0.48 0.46 0.27 0.17 0.22 0.51 0.93 0.85 0.85 0.76 0.83 1.35 1.25 0.82 0.55 0.60 0.47 0.36 0.32 0.27 0.34 0.42 0.43 0.53 0.58 0.44 0.39 0.35 0.42 0.54 0.62
0.87 0.80 0.70 0.55 0.54 0.46 0.31 0.43 0.34 0.44 0.48 0.43 0.36 0.35 0.29 0.16 0.10 0.22 0.59 0.63 0.66 0.52 0.54 0.55 0.85 0.78 0.47 0.38 0.42 0.36 0.36 0.30 0.28 0.31 0.32 0.44 0.75 0.67 0.50 0.41 0.47 0.57 0.58
0.93 0.81 0.75 0.56 0.64 0.62 0.36 0.35 0.33 0.36 0.40 0.38 0.31 0.35 0.38 0.25 0.15 0.16 0.33 0.56 0.56 0.60 0.41 0.42 0.39 0.40 0.43 0.43 0.47 0.49 0.49 0.51 0.37 0.35 0.35 0.56 0.56 0.78 0.97 0.70 0.52 0.62 0.65
1.13 0.96 0.96 0.87 0.78 0.61 0.52 0.55 0.48 0.45 0.39 0.30 0.36 0.39 0.30 0.31 0.29 0.29 0.30 0.38 0.61 0.65 0.71 0.50 0.50 0.43 0.36 0.41 0.57 0.64 0.62 0.61 0.43 0.46 0.40 0.45 0.61 0.66 0.87 0.91 0.74 0.76 0.82
1.32 1.08 1.08 1.04 0.98 0.79 0.58 0.48 0.56 0.70 0.58 0.57 0.77 0.71 0.46 0.43 0.43 0.37 0.36 0.40 0.54 0.54 0.67 0.77 0.58 0.53 0.41 0.43 0.45 0.62 0.68 0.71 0.62 0.54 0.57 0.44 0.54 0.60 0.72 0.91 0.89 0.77 0.75
1.14 1.10 1.10 0.94 0.87 1.04 1.14 1.06 0.88 0.82 0.63 0.74 0.75 0.77 0.89 0.91 0.41 0.34 0.39 0.43 0.56 0.59 0.57 0.61 0.63 0.45 0.32 0.35 0.42 0.59 0.68 0.81 0.83 0.70 0.74 0.69 0.66 0.55 0.52 0.70 0.94 1.01 0.87
0.89 0.88 1.09 1.06 1.00 1.18 1.34 1.20 1.08 1.02 1.10 1.13 0.68 0.81 0.85 0.82 0.70 0.47 0.32 0.33 0.46 0.66 0.85 0.68 0.63 0.38 0.31 0.31 0.34 0.39 0.44 0.49 0.69 0.79 0.93 0.81 0.70 0.48 0.48 0.56 0.66 0.82 1.08
0.71 0.76 0.74 1.09 0.96 1.22 1.47 1.41 1.24 1.05 1.23 1.27 1.20 0.91 0.72 0.63 0.59 0.55 0.45 0.46 0.60 0.54 0.45 0.39 0.40 0.39 0.44 0.47 0.42 0.40 0.44 0.55 0.49 0.52 0.73 1.06 0.86 0.55 0.34 0.35 0.46 0.56 0.75
0.57 0.77 0.91 0.90 1.17 1.42 1.50 1.55 1.74 1.59 1.38 1.21 1.00 0.84 0.88 0.83 0.64 0.67 0.61 0.45 0.41 0.45 0.54 0.65 0.51 0.46 0.47 0.63 0.68 0.68 0.61 0.71 0.91 0.76 0.57 0.72 0.92 1.06 0.86 0.67 0.65 0.76 0.99
0.49 0.72 1.09 1.31 1.22 1.27 1.63 1.60 1.75 1.77 1.83 1.73 1.44 1.15 0.80 0.81 0.70 0.71 0.66 0.66 0.56 0.34 0.39 0.56 0.75 0.65 0.59 0.48 0.45 0.47 0.49 0.45 0.54 0.93 0.96 0.80 0.89 1.06 1.44 1.20 1.22 1.33 1.47
0.48 0.51 0.87 1.35 1.50 1.48 1.60 1.85 1.83 2.00 2.03 1.98 1.87 1.62 1.30 0.97 0.72 0.75 0.81 0.79 1.04 0.94 0.82 0.68 0.58 0.50 0.43 0.62 0.59 0.54 0.53 0.52 0.47 0.56 0.75 0.88 0.84 0.99 1.30 1.91 1.88 1.58 1.56
0.86 0.79 0.99 1.25 1.48 1.45 1.48 1.64 2.02 2.11 2.25 2.48 2.19 2.05 1.74 1.27 1.07 1.12 1.19 1.23 1.04 0.71 0.69 0.60 0.48 0.56 0.51 0.49 0.54 0.65 0.55 0.55 0.51 0.51 0.55 0.66 0.82 0.90 1.12 1.45 2.14 2.73 2.44
2.17 1.75 1.69 1.54 1.46 1.50 1.71 1.82 1.82 1.82 1.68 1.62 1.92 2.16 2.14 1.76 1.50 1.20 1.18 1.32 1.67 1.28 0.53 0.28 0.41 0.51 0.60 0.70 0.55 0.65 0.68 0.63 0.61 0.53 0.49 0.47 0.51 0.55 0.68 0.98 1.32 1.53 1.63
3.52 3.07 2.58 2.25 1.94 1.89 1.80 1.47 1.38 1.53 1.79 1.64 1.71 1.88 1.96 2.00 1.94 1.91 1.93 1.76 1.93 2.07 1.62 0.53 0.45 0.37 0.41 0.48 0.60 0.79 0.73 0.72 0.75 0.80 0.88 0.75 0.51 0.49 0.49 0.50 0.57 0.69 0.83
2.62 3.32 3.31 2.75 2.51 2.06 1.99 1.86 1.50 1.30 1.38 1.81 1.89 1.87 1.88 1.83 2.11 2.13 2.01 1.94 1.77 1.86 1.70 0.90 0.86 0.78 0.69 0.57 0.54 0.68 0.72 0.71 0.76 0.90 1.01 1.17 1.12 0.96 0.84 0.79 0.68 0.56 0.54
2.32 2.21 2.46 2.86 2.57 2.52 2.14 2.08 1.94 1.86 1.88 1.74 1.73 2.02 2.23 2.07 1.91 1.66 1.74 2.06 1.91 1.67 1.90 1.63 1.45 1.45 1.20 0.98 0.92 0.90 0.80 0.76 0.73 0.92 0.93 1.15 1.33 1.19 1.18 1.30 1.33 1.32 1.05
1.42 1.55 1.84 1.99 2.12 2.51 2.37 2.29 1.93 1.55 1.80 1.82 1.90 1.88 1.92 2.19 2.26 2.09 1.87 1.60 1.56 1.66 1.64 1.64 1.57 1.64 1.83 1.50 1.55 1.75 1.75 1.49 1.43 1.25 0.96 0.94 1.10 1.31 1.31 1.34 1.31 1.29 1.25
1.49 1.43 1.43 1.63 1.82 1.77 2.03 2.25 2.40 2.10 1.73 1.54 1.48 1.70 1.74 1.85 2.18 2.35 2.45 2.40 2.09 1.88 1.70 1.77 1.80 1.81 1.78 1.92 1.88 1.99 2.53 2.31 1.82 1.39 1.26 1.28 1.34 1.20 1.22 1.22 1.32 1.29 1.16
2.04 1.81 1.67 1.44 1.46 1.79 2.16 2.09 2.14 2.14 2.03 2.02 1.70 1.52 1.77 2.05 2.06 2.03 2.28 2.53 2.68 2.63 2.64 2.54 2.45 2.48 2.14 1.52 1.70 1.92 2.30 2.37 2.38 2.10 1.77 1.56 1.54 1.67 1.66 1.57 1.45 1.38 1.34
1.74 1.55 1.79 1.38 1.31 1.24 1.93 2.08 2.10 2.14 2.03 2.03 2.20 1.99 1.92 2.19 2.12 2.25 2.32 2.30 2.35 2.67 2.65 2.54 2.67 2.62 2.37 2.34 2.11 2.20 2.47 2.58 2.48 2.21 2.25 1.99 1.70 1.63 1.73 1.82 2.09 1.85 1.62
1.31 1.42 1.49 1.33 1.01 0.86 1.16 1.13 1.39 1.44 1.76 1.98 1.96 2.02 1.91 1.92 1.83 1.49 1.85 1.90 1.89 2.16 2.46 2.39 2.38 2.48 2.59 2.60 2.51 2.51 2.59 2.89 2.93 2.67 2.63 2.83 2.67 2.51 2.18 2.05 2.34 1.75 1.71
1.37 1.13 1.05 0.96 0.94 0.97 1.00 0.91 1.04 0.78 0.82 0.87 0.83 0.79 0.76 0.80 1.21 1.25 1.20 1.53 1.82 2.17 2.46 2.66 2.96 3.22 3.25 2.99 2.92 2.90 2.65 2.66 2.70 2.58 2.75 3.16 2.97 3.10 2.92 2.54 2.86 2.05 1.80
1.07 0.97 0.88 0.86 0.77 0.72 0.99 0.82 0.81 0.56 0.70 0.76 0.73 0.79 0.87 0.66 1.30 1.13 0.72 0.86 1.13 1.37 1.93 2.03 2.08 2.22 2.27 2.06 1.97 2.16 2.72 3.11 3.05 2.62 2.34 2.50 2.49 2.79 2.82 2.65 2.65 2.72 2.22
1.23 1.19 1.12 1.06 1.12 0.77 1.06 0.95 0.92 0.75 0.91 0.93 0.91 1.00 1.62 1.24 1.63 1.29 1.12 1.12 1.34 1.45 1.41 1.43 1.48 1.45 1.37 1.37 1.65 1.48 1.72 2.50 3.06 2.98 2.50 2.58 2.45 2.53 2.89 2.71 2.38 2.21 2.09

GFSMA_prec_precacc_183.txt.gz
Total_Precipitation_Accumulation
0.42 0.45 0.43 0.47 0.86 0.82 0.89 0.54 0.48 0.56 0.53 0.54 0.46 0.33 0.22 0.47 0.47 0.57 0.72 0.85 0.91 0.87 1.02 0.97 0.81 0.85 0.72 0.50 0.34 0.29 0.35 0.43 0.45 0.58 0.59 0.42 0.40 0.45 0.57 0.75 0.86 0.71 0.78
0.56 0.60 0.53 0.44 0.62 0.62 0.69 0.60 0.34 0.49 0.63 0.54 0.52 0.35 0.11 0.33 0.47 0.70 0.94 1.16 1.23 1.12 1.22 1.24 1.09 0.80 0.64 0.68 0.53 0.36 0.31 0.29 0.43 0.47 0.49 0.49 0.46 0.45 0.41 0.45 0.67 0.70 0.65
0.76 0.63 0.66 0.51 0.44 0.47 0.44 0.55 0.53 0.53 0.54 0.55 0.48 0.46 0.27 0.17 0.22 0.51 0.93 0.85 0.85 0.76 0.83 1.35 1.25 0.82 0.56 0.61 0.49 0.38 0.35 0.30 0.36 0.44 0.45 0.54 0.60 0.48 0.44 0.43 0.52 0.64 0.70
0.87 0.80 0.70 0.55 0.54 0.46 0.31 0.43 0.34 0.44 0.48 0.43 0.36 0.35 0.29 0.16 0.10 0.22 0.59 0.63 0.66 0.52 0.54 0.55 0.85 0.78 0.47 0.38 0.44 0.40 0.41 0.34 0.31 0.34 0.35 0.47 0.78 0.70 0.57 0.48 0.57 0.69 0.69
0.93 0.81 0.75 0.56 0.64 0.62 0.36 0.35 0.33 0.36 0.40 0.38 0.31 0.35 0.38 0.25 0.15 0.16 0.33 0.56 0.56 0.60 0.41 0.42 0.39 0.40 0.43 0.44 0.49 0.52 0.53 0.54 0.41 0.41 0.42 0.61 0.60 0.80 1.02 0.88 0.67 0.73 0.76
1.13 0.96 0.96 0.87 0.78 0.61 0.52 0.55 0.48 0.45 0.39 0.30 0.36 0.39 0.30 0.31 0.29 0.29 0.30 0.38 0.61 0.65 0.71 0.50 0.50 0.43 0.36 0.41 0.58 0.66 0.67 0.66 0.50 0.54 0.47 0.49 0.63 0.68 0.88 0.97 0.95 0.96 1.01
1.32 1.08 1.08 1.04 0.98 0.79 0.58 0.48 0.56 0.70 0.58 0.57 0.77 0.71 0.46 0.43 0.43 0.37 0.36 0.40 0.54 0.54 0.67 0.77 0.58 0.53 0.41 0.43 0.46 0.64 0.71 0.74 0.66 0.61 0.63 0.48 0.56 0.62 0.73 0.92 0.96 1.06 1.14
1.14 1.10 1.10 0.94 0.87 1.04 1.14 1.06 0.88 0.82 0.63 0.74 0.75 0.77 0.89 0.91 0.41 0.34 0.39 0.43 0.56 0.59 0.57 0.61 0.63 0.45 0.32 0.35 0.43 0.62 0.71 0.82 0.85 0.74 0.78 0.72 0.68 0.57 0.53 0.71 0.94 1.06 1.24
0.89 0.88 1.09 1.06 1.00 1.18 1.34 1.20 1.08 1.02 1.10 1.13 0.68 0.81 0.85 0.82 0.70 0.47 0.32 0.33 0.46 0.66 0.85 0.68 0.63 0.38 0.31 0.31 0.35 0.42 0.46 0.50 0.70 0.83 0.96 0.84 0.72 0.49 0.49 0.57 0.68 0.84 1.17
0.71 0.76 0.74 1.09 0.96 1.22 1.47 1.41 1.24 1.05 1.23 1.27 1.20 0.91 0.72 0.63 0.59 0.55 0.45 0.46 0.60 0.54 0.45 0.39 0.40 0.39 0.44 0.47 0.43 0.44 0.47 0.56 0.51 0.55 0.76 1.10 0.89 0.57 0.36 0.36 0.47 0.57 0.76
0.57 0.77 0.91 0.90 1.17 1.42 1.50 1.55 1.74 1.59 1.38 1.21 1.00 0.84 0.88 0.83 0.64 0.67 0.61 0.45 0.41 0.45 0.54 0.65 0.51 0.46 0.47 0.63 0.69 0.71 0.65 0.73 0.93 0.79 0.61 0.75 0.95 1.09 0.88 0.69 0.67 0.77 1.00
0.49 0.72 1.09 1.31 1.22 1.27 1.63 1.60 1.75 1.77 1.83 1.73 1.44 1.15 0.80 0.81 0.70 0.71 0.66 0.66 0.56 0.34 0.39 0.56 0.75 0.65 0.59 0.48 0.46 0.49 0.52 0.47 0.56 0.95 0.99 0.83 0.91 1.09 1.46 1.23 1.25 1.37 1.51
0.48 0.51 0.87 1.35 1.50 1.48 1.60 1.85 1.83 2.00 2.03 1.98 1.87 1.62 1.30 0.97 0.72 0.75 0.81 0.79 1.04 0.94 0.82 0.68 0.58 0.50 0.43 0.62 0.59 0.56 0.54 0.54 0.48 0.57 0.77 0.90 0.87 1.02 1.32 1.94 1.91 1.62 1.61
0.86 0.79 0.99 1.25 1.48 1.45 1.48 1.64 2.02 2.11 2.25 2.48 2.19 2.05 1.74 1.27 1.07 1.12 1.19 1.23 1.04 0.71 0.69 0.60 0.48 0.56 0.51 0.49 0.54 0.65 0.55 0.57 0.52 0.52 0.56 0.68 0.84 0.93 1.14 1.47 2.17 2.76 2.47
2.17 1.75 1.69 1.54 1.46 1.50 1.71 1.82 1.82 1.82 1.68 1.62 1.92 2.16 2.14 1.76 1.50 1.20 1.18 1.32 1.67 1.28 0.53 0.28 0.41 0.51 0.60 0.70 0.55 0.65 0.68 0.64 0.62 0.54 0.51 0.48 0.53 0.57 0.70 1.00 1.34 1.55 1.65
3.52 3.07 2.58 2.25 1.94 1.89 1.80 1.47 1.38 1.53 1.79 1.64 1.71 1.88 1.96 2.00 1.94 1.91 1.93 1.76 1.93 2.07 1.62 0.53 0.45 0.37 0.41 0.48 0.60 0.79 0.74 0.74 0.76 0.81 0.90 0.77 0.52 0.51 0.51 0.52 0.59 0.71 0.85
2.62 3.32 3.31 2.75 2.51 2.06 1.99 1.86 1.50 1.30 1.38 1.81 1.89 1.87 1.88 1.83 2.11 2.13 2.01 1.94 1.77 1.86 1.70 0.90 0.86 0.78 0.69 0.57 0.54 0.68 0.72 0.71 0.76 0.90 1.03 1.19 1.13 0.97 0.85 0.81 0.70 0.58 0.56
2.32 2.21 2.46 2.86 2.57 2.52 2.14 2.08 1.94 1.86 1.88 1.74 1.73 2.02 2.23 2.07 1.91 1.66 1.74 2.06 1.91 1.67 1.90 1.63 1.45 1.45 1.20 0.98 0.92 0.90 0.80 0.76 0.73 0.92 0.93 1.16 1.35 1.19 1.19 1.31 1.34 1.33 1.07
1.42 1.55 1.84 1.99 2.12 2.51 2.37 2.29 1.93 1.55 1.80 1.82 1.90 1.88 1.92 2.19 2.26 2.09 1.87 1.60 1.56 1.66 1.64 1.64 1.57 1.64 1.83 1.50 1.55 1.75 1.75 1.49 1.43 1.25 0.96 0.94 1.11 1.31 1.32 1.35 1.32 1.30 1.27
1.49 1.43 1.43 1.63 1.82 1.77 2.03 2.25 2.40 2.10 1.73 1.54 1.48 1.70 1.74 1.85 2.18 2.35 2.45 2.40 2.09 1.88 1.70 1.77 1.80 1.81 1.78 1.92 1.88 1.99 2.53 2.31 1.82 1.39 1.26 1.28 1.34 1.20 1.23 1.22 1.32 1.30 1.17
2.04 1.81 1.67 1.44 1.46 1.79 2.16 2.09 2.14 2.14 2.03 2.02 1.70 1.52 1.77 2.05 2.06 2.03 2.28 2.53 2.68 2.63 2.64 2.54 2.45 2.48 2.14 1.53 1.70 1.92 2.30 2.37 2.38 2.10 1.77 1.56 1.54 1.68 1.66 1.57 1.45 1.38 1.34
1.74 1.55 1.79 1.38 1.31 1.24 1.93 2.08 2.10 2.14 2.03 2.03 2.20 1.99 1.92 2.19 2.12 2.25 2.32 2.30 2.35 2.67 2.65 2.54 2.68 2.62 2.38 2.34 2.11 2.20 2.47 2.58 2.48 2.21 2.25 1.99 1.70 1.63 1.73 1.82 2.09 1.85 1.62
1.32 1.42 1.49 1.33 1.01 0.86 1.16 1.13 1.39 1.44 1.76 1.98 1.96 2.02 1.91 1.92 1.83 1.49 1.85 1.90 1.89 2.16 2.47 2.39 2.38 2.48 2.59 2.60 2.51 2.51 2.59 2.89 2.94 2.67 2.63 2.83 2.67 2.51 2.19 2.05 2.34 1.75 1.71
1.37 1.13 1.05 0.96 0.94 0.97 1.00 0.91 1.04 0.78 0.82 0.87 0.83 0.79 0.76 0.80 1.21 1.25 1.20 1.53 1.82 2.17 2.47 2.66 2.96 3.22 3.25 2.99 2.92 2.90 2.65 2.66 2.70 2.58 2.75 3.16 2.97 3.10 2.93 2.54 2.86 2.05 1.80
1.07 0.97 0.88 0.86 0.77 0.72 0.99 0.82 0.81 0.56 0.70 0.76 0.73 0.79 0.87 0.66 1.30 1.13 0.72 0.86 1.13 1.37 1.93 2.03 2.08 2.22 2.27 2.06 1.97 2.16 2.72 3.11 3.05 2.62 2.34 2.50 2.49 2.79 2.82 2.65 2.65 2.72 2.22
1.23 1.19 1.12 1.06 1.12 0.77 1.06 0.95 0.92 0.75 0.91 0.93 0.91 1.00 1.62 1.24 1.63 1.29 1.12 1.12 1.34 1.45 1.41 1.43 1.48 1.45 1.37 1.37 1.65 1.48 1.72 2.50 3.06 2.98 2.50 2.58 2.45 2.53 2.89 2.71 2.38 2.21 2.09

GFSMA_prec_precacc_189.txt.gz
Total_Precipitation_Accumulation
0.42 0.45 0.43 0.47 0.86 0.82 0.89 0.54 0.48 0.56 0.53 0.54 0.46 0.33 0.22 0.47 0.47 0.57 0.72 0.85 0.91 0.87 1.02 0.97 0.81 0.85 0.73 0.51 0.35 0.30 0.36 0.44 0.46 0.60 0.61 0.43 0.41 0.45 0.58 0.75 0.87 0.73 0.80
0.56 0.60 0.53 0.44 0.62 0.62 0.69 0.60 0.34 0.49 0.63 0.54 0.52 0.35 0.11 0.33 0.47 0.70 0.94 1.16 1.23 1.12 1.22 1.24 1.09 0.81 0.65 0.68 0.53 0.36 0.32 0.31 0.44 0.49 0.51 0.51 0.47 0.46 0.41 0.46 0.68 0.71 0.68
0.76 0.63 0.66 0.51 0.44 0.47 0.44 0.55 0.53 0.53 0.54 0.55 0.48 0.46 0.27 0.17 0.22 0.51 0.93 0.85 0.85 0.76 0.83 1.35 1.25 0.82 0.56 0.61 0.49 0.38 0.35 0.31 0.38 0.45 0.46 0.56 0.61 0.49 0.45 0.44 0.54 0.67 0.75
0.87 0.80 0.70 0.55 0.54 0.46 0.31 0.43 0.34 0.44 0.48 0.43 0.36 0.35 0.29 0.16 0.10 0.22 0.59 0.63 0.66 0.52 0.54 0.55 0.85 0.78 0.47 0.38 0.44 0.40 0.42 0.35 0.32 0.35 0.38 0.49 0.79 0.72 0.58 0.50 0.59 0.71 0.74
0.93 0.81 0.75 0.56 0.64 0.62 0.36 0.35 0.33 0.36 0.40 0.38 0.31 0.35 0.38 0.25 0.15 0.16 0.33 0.56 0.56 0.60 0.41 0.42 0.39 0.40 0.43 0.44 0.49 0.54 0.55 0.56 0.42 0.43 0.45 0.64 0.62 0.83 1.05 0.90 0.69 0.74 0.78
1.13 0.96 0.96 0.87 0.78 0.61 0.52 0.55 0.48 0.45 0.39 0.30 0.36 0.39 0.30 0.31 0.29 0.29 0.30 0.38 0.61 0.65 0.71 0.50 0.50 0.43 0.36 0.41 0.59 0.69 0.70 0.70 0.52 0.57 0.50 0.52 0.65 0.70 0.90 0.99 0.97 0.97 1.02
1.32 1.08 1.08 1.04 0.98 0.79 0.58 0.48 0.56 0.70 0.58 0.57 0.77 0.71 0.46 0.43 0.43 0.37 0.36 0.40 0.54 0.54 0.67 0.77 0.58 0.53 0.41 0.43 0.47 0.66 0.74 0.77 0.70 0.66 0.67 0.52 0.59 0.64 0.76 0.94 0.98 1.07 1.15
1.14 1.10 1.10 0.94 0.87 1.04 1.14 1.06 0.88 0.82 0.63 0.74 0.75 0.77 0.89 0.91 0.41 0.34 0.39 0.43 0.56 0.59 0.57 0.61 0.63 0.45 0.32 0.35 0.44 0.63 0.72 0.84 0.89 0.78 0.83 0.78 0.74 0.62 0.57 0.74 0.98 1.09 1.25
0.89 0.88 1.09 1.06 1.00 1.18 1.34 1.20 1.08 1.02 1.10 1.13 0.68 0.81 0.85 0.82 0.70 0.47 0.32 0.33 0.46 0.66 0.85 0.68 0.63 0.38 0.31 0.31 0.36 0.43 0.47 0.51 0.72 0.86 1.01 0.90 0.78 0.55 0.55 0.63 0.72 0.87 1.19
0.71 0.76 0.74 1.09 0.96 1.22 1.47 1.41 1.24 1.05 1.23 1.27 1.20 0.91 0.72 0.63 0.59 0.55 0.45 0.46 0.60 0.54 0.45 0.39 0.40 0.39 0.44 0.47 0.43 0.46 0.49 0.57 0.52 0.57 0.80 1.15 0.95 0.63 0.41 0.41 0.51 0.60 0.78
0.57 0.77 0.91 0.90 1.17 1.42 1.50 1.55 1.74 1.59 1.38 1.21 1.00 0.84 0.88 0.83 0.64 0.67 0.61 0.45 0.41 0.45 0.54 0.65 0.51 0.46 0.47 0.63 0.69 0.72 0.66 0.74 0.94 0.81 0.64 0.79 0.99 1.13 0.92 0.72 0.71 0.81 1.03
0.49 0.72 1.09 1.31 1.22 1.27 1.63 1.60 1.75 1.77 1.83 1.73 1.44 1.15 0.80 0.81 0.70 0.71 0.66 0.66 0.56 0.34 0.39 0.56 0.75 0.65 0.59 0.48 0.46 0.50 0.53 0.48 0.56 0.97 1.01 0.85 0.93 1.11 1.49 1.26 1.29 1.42 1.57
0.48 0.51 0.87 1.35 1.50 1.48 1.60 1.85 1.83 2.00 2.03 1.98 1.87 1.62 1.30 0.97 0.72 0.75 0.81 0.79 1.04 0.94 0.82 0.68 0.58 0.50 0.43 0.62 0.59 0.56 0.54 0.56 0.48 0.59 0.78 0.91 0.88 1.04 1.34 1.96 1.94 1.66 1.66
0.86 0.79 0.99 1.25 1.48 1.45 1.48 1.64 2.02 2.11 2.25 2.48 2.19 2.05 1.74 1.27 1.07 1.12 1.19 1.23 1.04 0.71 0.69 0.60 0.48 0.56 0.51 0.49 0.54 0.65 0.55 0.58 0.52 0.53 0.57 0.69 0.85 0.94 1.15 1.50 2.19 2.79 2.51
2.17 1.75 1.69 1.54 1.46 1.50 1.71 1.82 1.82 1.82 1.68 1.62 1.92 2.16 2.14 1.76 1.50 1.20 1.18 1.32 1.67 1.28 0.53 0.28 0.41 0.51 0.60 0.70 0.55 0.65 0.68 0.64 0.62 0.54 0.51 0.49 0.54 0.58 0.71 1.02 1.36 1.58 1.69
3.52 3.07 2.58 2.25 1.94 1.89 1.80 1.47 1.38 1.53 1.79 1.64 1.71 1.88 1.96 2.00 1.94 1.91 1.93 1.76 1.93 2.07 1.62 0.53 0.45 0.37 0.41 0.48 0.60 0.79 0.74 0.74 0.76 0.81 0.90 0.77 0.53 0.51 0.51 0.53 0.60 0.73 0.88
2.62 3.32 3.31 2.75 2.51 2.06 1.99 1.86 1.50 1.30 1.38 1.81 1.89 1.87 1.88 1.83 2.11 2.13 2.01 1.94 1.77 1.86 1.70 0.90 0.86 0.78 0.69 0.57 0.54 0.68 0.72 0.71 0.76 0.90 1.03 1.19 1.14 0.98 0.85 0.81 0.70 0.59 0.58
2.32 2.21 2.46 2.86 2.57 2.52 2.14 2.08 1.94 1.86 1.88 1.74 1.73 2.02 2.23 2.07 1.91 1.66 1.74 2.06 1.91 1.67 1.90 1.63 1.45 1.45 1.20 0.98 0.92 0.90 0.80 0.76 0.73 0.92 0.93 1.16 1.36 1.20 1.19 1.31 1.34 1.34 1.08
1.42 1.55 1.84 1.99 2.12 2.51 2.37 2.29 1.93 1.55 1.80 1.82 1.90 1.88 1.92 2.19 2.26 2.09 1.87 1.60 1.56 1.66 1.64 1.64 1.57 1.64 1.83 1.50 1.55 1.75 1.75 1.49 1.43 1.25 0.96 0.94 1.12 1.32 1.32 1.35 1.32 1.30 1.27
1.49 1.43 1.43 1.63 1.82 1.77 2.03 2.25 2.40 2.10 1.73 1.54 1.48 1.70 1.74 1.85 2.18 2.35 2.45 2.40 2.09 1.88 1.70 1.77 1.80 1.81 1.78 1.92 1.88 1.99 2.53 2.31 1.82 1.39 1.26 1.28 1.34 1.20 1.23 1.22 1.32 1.30 1.17
2.04 1.81 1.67 1.44 1.46 1.79 2.16 2.09 2.14 2.14 2.03 2.02 1.70 1.52 1.77 2.05 2.06 2.03 2.28 2.53 2.68 2.63 2.64 2.54 2.45 2.48 2.14 1.53 1.70 1.92 2.30 2.37 2.38 2.10 1.77 1.56 1.54 1.68 1.66 1.57 1.45 1.39 1.34
1.76 1.57 1.81 1.40 1.32 1.24 1.94 2.08 2.10 2.14 2.03 2.03 2.20 1.99 1.92 2.19 2.12 2.25 2.32 2.30 2.35 2.67 2.65 2.54 2.68 2.62 2.38 2.34 2.11 2.20 2.47 2.58 2.48 2.21 2.25 1.99 1.70 1.63 1.73 1.82 2.09 1.85 1.62
1.36 1.46 1.52 1.35 1.03 0.87 1.16 1.13 1.39 1.44 1.76 1.98 1.96 2.02 1.91 1.92 1.83 1.49 1.85 1.90 1.89 2.16 2.47 2.39 2.38 2.48 2.59 2.60 2.51 2.51 2.59 2.89 2.94 2.67 2.63 2.83 2.67 2.51 2.19 2.05 2.34 1.75 1.71
1.47 1.19 1.10 1.00 0.96 0.99 1.01 0.91 1.04 0.78 0.82 0.87 0.83 0.79 0.76 0.80 1.21 1.25 1.20 1.53 1.82 2.17 2.47 2.66 2.96 3.22 3.25 2.99 2.92 2.90 2.65 2.66 2.70 2.58 2.75 3.16 2.97 3.10 2.93 2.54 2.86 2.05 1.80
1.22 1.08 0.95 0.93 0.82 0.76 1.00 0.82 0.81 0.56 0.70 0.76 0.73 0.79 0.87 0.66 1.30 1.13 0.72 0.86 1.13 1.37 1.94 2.03 2.08 2.22 2.27 2.06 1.97 2.16 2.72 3.11 3.05 2.62 2.34 2.50 2.49 2.79 2.82 2.65 2.65 2.72 2.22
1.46 1.38 1.26 1.16 1.18 0.79 1.06 0.95 0.92 0.75 0.91 0.93 0.91 1.00 1.62 1.24 1.63 1.29 1.12 1.12 1.34 1.45 1.41 1.43 1.48 1.45 1.37 1.37 1.65 1.48 1.72 2.50 3.06 2.98 2.50 2.58 2.45 2.53 2.89 2.71 2.38 2.21 2.09

GFSMA_prec_precacc_195.txt.gz
Total_Precipitation_Accumulation
0.42 0.45 0.43 0.47 0.86 0.82 0.89 0.54 0.48 0.56 0.53 0.54 0.46 0.33 0.22 0.47 0.47 0.57 0.72 0.85 0.91 0.87 1.02 0.98 0.81 0.85 0.73 0.51 0.35 0.30 0.36 0.44 0.46 0.60 0.61 0.44 0.42 0.46 0.58 0.75 0.87 0.74 0.80
0.56 0.60 0.53 0.44 0.62 0.62 0.69 0.60 0.34 0.49 0.63 0.54 0.52 0.35 0.11 0.33 0.47 0.70 0.94 1.16 1.23 1.12 1.22 1.24 1.09 0.81 0.65 0.69 0.54 0.37 0.32 0.31 0.45 0.50 0.52 0.51 0.48 0.46 0.41 0.46 0.68 0.72 0.69
0.76 0.63 0.66 0.51 0.44 0.47 0.44 0.55 0.53 0.53 0.54 0.55 0.48 0.46 0.27 0.17 0.22 0.51 0.93 0.85 0.85 0.76 0.83 1.35 1.25 0.82 0.56 0.62 0.49 0.39 0.36 0.31 0.38 0.46 0.47 0.57 0.62 0.49 0.45 0.45 0.54 0.67 0.75
0.87 0.80 0.70 0.55 0.54 0.46 0.31 0.43 0.34 0.44 0.48 0.43 0.36 0.35 0.29 0.16 0.10 0.22 0.59 0.63 0.66 0.52 0.54 0.55 0.85 0.78 0.47 0.38 0.45 0.41 0.43 0.36 0.33 0.36 0.39 0.50 0.80 0.73 0.59 0.50 0.59 0.71 0.74
0.93 0.81 0.75 0.56 0.64 0.62 0.36 0.35 0.33 0.36 0.40 0.38 0.31 0.35 0.38 0.25 0.15 0.16 0.33 0.56 0.56 0.60 0.41 0.42 0.39 0.40 0.43 0.44 0.50 0.55 0.57 0.57 0.43 0.44 0.45 0.65 0.64 0.84 1.06 0.91 0.69 0.75 0.79
1.13 0.96 0.96 0.87 0.78 0.61 0.52 0.55 0.48 0.45 0.39 0.30 0.36 0.39 0.30 0.31 0.29 0.29 0.30 0.38 0.61 0.65 0.71 0.50 0.50 0.43 0.36 0.41 0.59 0.70 0.72 0.71 0.54 0.58 0.52 0.54 0.67 0.71 0.91 1.00 0.97 0.98 1.03
1.32 1.08 1.08 1.04 0.98 0.79 0.58 0.48 0.56 0.70 0.58 0.57 0.77 0.71 0.46 0.43 0.43 0.37 0.36 0.40 0.54 0.54 0.67 0.77 0.58 0.53 0.41 0.43 0.47 0.67 0.75 0.79 0.72 0.67 0.69 0.54 0.61 0.66 0.77 0.95 0.99 1.08 1.16
1.14 1.10 1.10 0.94 0.87 1.04 1.14 1.06 0.88 0.82 0.63 0.74 0.75 0.77 0.89 0.91 0.41 0.34 0.39 0.43 0.56 0.59 0.57 0.61 0.63 0.45 0.32 0.35 0.44 0.63 0.73 0.85 0.90 0.80 0.85 0.80 0.76 0.63 0.59 0.76 0.99 1.10 1.27
0.89 0.88 1.09 1.06 1.00 1.18 1.34 1.20 1.08 1.02 1.10 1.13 0.68 0.81 0.85 0.82 0.70 0.47 0.32 0.33 0.46 0.66 0.85 0.68 0.63 0.38 0.31 0.31 0.36 0.43 0.47 0.51 0.73 0.88 1.03 0.92 0.80 0.58 0.58 0.65 0.75 0.89 1.22
0.71 0.76 0.74 1.09 0.96 1.22 1.47 1.41 1.24 1.05 1.23 1.27 1.20 0.91 0.72 0.63 0.59 0.55 0.45 0.46 0.60 0.54 0.45 0.39 0.40 0.39 0.44 0.47 0.43 0.46 0.49 0.57 0.52 0.58 0.81 1.17 0.97 0.65 0.44 0.43 0.54 0.63 0.81
0.57 0.77 0.91 0.90 1.17 1.42 1.50 1.55 1.74 1.59 1.38 1.21 1.00 0.84 0.88 0.83 0.64 0.67 0.61 0.45 0.41 0.45 0.54 0.65 0.51 0.46 0.47 0.63 0.69 0.73 0.67 0.74 0.94 0.82 0.65 0.80 1.01 1.14 0.93 0.74 0.73 0.84 1.07
0.49 0.72 1.09 1.31 1.22 1.27 1.63 1.60 1.75 1.77 1.83 1.73 1.44 1.15 0.80 0.81 0.70 0.71 0.66 0.66 0.56 0.34 0.39 0.56 0.75 0.65 0.59 0.48 0.46 0.50 0.53 0.49 0.56 0.97 1.01 0.86 0.94 1.12 1.51 1.27 1.30 1.44 1.60
0.48 0.51 0.87 1.35 1.50 1.48 1.60 1.85 1.83 2.00 2.03 1.98 1.87 1.62 1.30 0.97 0.72 0.75 0.81 0.79 1.04 0.94 0.82 0.68 0.58 0.50 0.43 0.62 0.59 0.56 0.54 0.56 0.48 0.59 0.78 0.92 0.89 1.04 1.35 1.97 1.95 1.67 1.68
0.86 0.79 0.99 1.25 1.48 1.45 1.48 1.64 2.02 2.11 2.25 2.48 2.19 2.05 1.74 1.27 1.07 1.12 1.19 1.23 1.04 0.71 0.69 0.60 0.48 0.56 0.51 0.49 0.54 0.65 0.55 0.58 0.52 0.53 0.57 0.69 0.85 0.94 1.15 1.50 2.19 2.79 2.51
2.17 1.75 1.69 1.54 1.46 1.50 1.71 1.82 1.82 1.82 1.68 1.62 1.92 2.16 2.14 1.76 1.50 1.20 1.18 1.32 1.67 1.28 0.53 0.28 0.41 0.51 0.60 0.70 0.55 0.65 0.68 0.64 0.62 0.54 0.51 0.49 0.54 0.59 0.71 1.02 1.36 1.58 1.69
3.52 3.07 2.58 2.25 1.94 1.89 1.80 1.47 1.38 1.53 1.79 1.64 1.71 1.88 1.96 2.00 1.94 1.91 1.93 1.76 1.93 2.07 1.62 0.53 0.45 0.37 0.41 0.48 0.60 0.79 0.74 0.74 0.76 0.81 0.90 0.78 0.53 0.52 0.51 0.53 0.60 0.73 0.88
2.62 3.32 3.31 2.75 2.51 2.06 1.99 1.86 1.50 1.30 1.38 1.81 1.89 1.87 1.88 1.83 2.11 2.13 2.01 1.94 1.77 1.86 1.70 0.90 0.86 0.78 0.69 0.57 0.54 0.68 0.72 0.71 0.76 0.90 1.03 1.19 1.14 0.98 0.85 0.81 0.70 0.59 0.58
2.37 2.23 2.47 2.86 2.58 2.53 2.15 2.08 1.95 1.87 1.88 1.74 1.73 2.02 2.23 2.07 1.91 1.66 1.74 2.06 1.91 1.67 1.90 1.63 1.45 1.45 1.20 0.98 0.92 0.90 0.80 0.76 0.73 0.92 0.93 1.16 1.36 1.20 1.19 1.31 1.34 1.34 1.08
1.62 1.67 1.90 2.03 2.16 2.55 2.40 2.31 1.96 1.57 1.80 1.82 1.90 1.88 1.92 2.19 2.26 2.09 1.87 1.60 1.56 1.66 1.64 1.64 1.57 1.64 1.83 1.50 1.55 1.75 1.75 1.49 1.43 1.25 0.96 0.94 1.12 1.32 1.32 1.35 1.32 1.30 1.27
1.71 1.61 1.56 1.72 1.90 1.84 2.07 2.27 2.41 2.10 1.73 1.54 1.48 1.70 1.74 1.85 2.18 2.35 2.45 2.40 2.09 1.88 1.70 1.77 1.80 1.81 1.78 1.92 1.88 1.99 2.53 2.31 1.82 1.39 1.26 1.28 1.34 1.20 1.23 1.22 1.32 1.30 1.17
2.25 1.98 1.84 1.59 1.55 1.85 2.19 2.11 2.14 2.14 2.03 2.02 1.70 1.52 1.77 2.05 2.06 2.03 2.28 2.53 2.68 2.63 2.64 2.54 2.45 2.48 2.14 1.53 1.70 1.92 2.30 2.37 2.38 2.10 1.77 1.56 1.54 1.68 1.66 1.57 1.45 1.39 1.34
2.03 1.76 1.93 1.47 1.36 1.25 1.94 2.08 2.10 2.14 2.03 2.03 2.20 1.99 1.92 2.19 2.12 2.25 2.32 2.30 2.35 2.67 2.65 2.54 2.68 2.62 2.38 2.34 2.11 2.20 2.47 2.58 2.48 2.21 2.25 1.99 1.70 1.63 1.73 1.82 2.09 1.85 1.62
1.58 1.64 1.64 1.41 1.06 0.88 1.16 1.13 1.39 1.44 1.76 1.98 1.96 2.02 1.91 1.93 1.83 1.49 1.85 1.90 1.89 2.16 2.47 2.39 2.38 2.48 2.59 2.60 2.51 2.51 2.59 2.89 2.94 2.67 2.63 2.83 2.67 2.51 2.19 2.05 2.34 1.75 1.71
1.69 1.42 1.31 1.18 1.08 1.04 1.02 0.92 1.05 0.78 0.82 0.87 0.83 0.79 0.76 0.80 1.21 1.25 1.20 1.53 1.82 2.17 2.47 2.66 2.96 3.22 3.25 2.99 2.92 2.90 2.65 2.66 2.70 2.59 2.75 3.16 2.97 3.10 2.93 2.54 2.86 2.05 1.80
1.53 1.39 1.19 1.12 0.99 0.88 1.11 0.90 0.84 0.57 0.71 0.77 0.74 0.79 0.87 0.66 1.30 1.13 0.72 0.86 1.13 1.37 1.94 2.03 2.08 2.22 2.27 2.06 1.97 2.16 2.72 3.11 3.05 2.62 2.34 2.50 2.50 2.79 2.82 2.66 2.65 2.72 2.22
1.68 1.70 1.67 1.51 1.42 0.97 1.24 1.11 1.02 0.81 0.95 0.96 0.94 1.01 1.63 1.24 1.63 1.29 1.12 1.12 1.34 1.45 1.41 1.43 1.48 1.45 1.37 1.37 1.65 1.48 1.72 2.50 3.06 2.99 2.50 2.58 2.45 2.53 2.89 2.72 2.38 2.21 2.09

GFSMA_prec_precacc_198.txt.gz
Total_Precipitation_Accumulation
0.42 0.45 0.43 0.47 0.86 0.82 0.89 0.54 0.48 0.56 0.53 0.54 0.46 0.33 0.22 0.47 0.47 0.57 0.72 0.85 0.91 0.87 1.02 0.98 0.81 0.85 0.74 0.51 0.35 0.30 0.36 0.45 0.47 0.61 0.61 0.44 0.42 0.46 0.58 0.76 0.87 0.74 0.81
0.56 0.60 0.53 0.44 0.62 0.62 0.69 0.60 0.34 0.49 0.63 0.54 0.52 0.35 0.11 0.33 0.47 0.70 0.94 1.16 1.23 1.12 1.22 1.24 1.09 0.81 0.65 0.69 0.54 0.37 0.32 0.31 0.45 0.50 0.52 0.51 0.48 0.46 0.41 0.46 0.68 0.72 0.69
0.76 0.63 0.66 0.51 0.44 0.47 0.44 0.55 0.53 0.53 0.54 0.55 0.48 0.46 0.27 0.17 0.22 0.51 0.93 0.85 0.85 0.76 0.83 1.35 1.25 0.82 0.56 0.62 0.50 0.40 0.37 0.31 0.38 0.46 0.47 0.57 0.62 0.50 0.46 0.45 0.54 0.67 0.75
0.87 0.80 0.70 0.55 0.54 0.46 0.31 0.43 0.34 0.44 0.48 0.43 0.36 0.35 0.29 0.16 0.10 0.22 0.59 0.63 0.66 0.52 0.54 0.55 0.85 0.78 0.47 0.39 0.45 0.42 0.44 0.36 0.33 0.37 0.39 0.50 0.80 0.73 0.59 0.50 0.59 0.71 0.75
0.93 0.81 0.75 0.56 0.64 0.62 0.36 0.35 0.33 0.36 0.40 0.38 0.31 0.35 0.38 0.25 0.15 0.16 0.33 0.56 0.56 0.60 0.41 0.42 0.39 0.40 0.43 0.44 0.50 0.55 0.57 0.58 0.44 0.45 0.46 0.66 0.64 0.85 1.07 0.92 0.70 0.75 0.79
1.13 0.96 0.96 0.87 0.78 0.61 0.52 0.55 0.48 0.45 0.39 0.30 0.36 0.39 0.30 0.31 0.29 0.29 0.30 0.38 0.61 0.65 0.71 0.50 0.50 0.43 0.36 0.41 0.59 0.70 0.72 0.73 0.55 0.59 0.52 0.54 0.67 0.71 0.92 1.00 0.98 0.98 1.03
1.32 1.08 1.08 1.04 0.98 0.79 0.58 0.48 0.56 0.70 0.58 0.57 0.77 0.71 0.46 0.43 0.43 0.37 0.36 0.40 0.54 0.54 0.67 0.77 0.58 0.53 0.41 0.43 0.47 0.67 0.75 0.80 0.73 0.68 0.70 0.54 0.61 0.66 0.78 0.96 1.00 1.09 1.16
1.14 1.10 1.10 0.94 0.87 1.04 1.14 1.06 0.88 0.82 0.63 0.74 0.75 0.77 0.89 0.91 0.41 0.34 0.39 0.43 0.56 0.59 0.57 0.61 0.63 0.45 0.32 0.35 0.44 0.63 0.73 0.85 0.91 0.80 0.86 0.81 0.76 0.64 0.59 0.76 1.00 1.11 1.27
0.89 0.88 1.09 1.06 1.00 1.18 1.34 1.20 1.08 1.02 1.10 1.13 0.68 0.81 0.85 0.82 0.70 0.47 0.32 0.33 0.46 0.66 0.85 0.68 0.63 0.38 0.31 0.31 0.36 0.43 0.47 0.51 0.73 0.88 1.03 0.93 0.81 0.59 0.58 0.66 0.75 0.90 1.22
0.71 0.76 0.74 1.09 0.96 1.22 1.47 1.41 1.24 1.05 1.23 1.27 1.20 0.91 0.72 0.63 0.59 0.55 0.45 0.46 0.60 0.54 0.45 0.39 0.40 0.39 0.44 0.47 0.43 0.46 0.49 0.57 0.52 0.58 0.81 1.17 0.97 0.65 0.44 0.43 0.54 0.63 0.82
0.57 0.77 0.91 0.90 1.17 1.42 1.50 1.55 1.74 1.59 1.38 1.21 1.00 0.84 0.88 0.83 0.64 0.67 0.61 0.45 0.41 0.45 0.54 0.65 0.51 0.46 0.47 0.63 0.69 0.73 0.67 0.74 0.94 0.82 0.65 0.80 1.01 1.14 0.93 0.74 0.73 0.84 1.07
0.49 0.72 1.09 1.31 1.22 1.27 1.63 1.60 1.75 1.77 1.83 1.73 1.44 1.15 0.80 0.81 0.70 0.71 0.66 0.66 0.56 0.34 0.39 0.56 0.75 0.65 0.59 0.48 0.46 0.50 0.53 0.49 0.56 0.97 1.01 0.86 0.94 1.12 1.51 1.27 1.30 1.44 1.60
0.48 0.51 0.87 1.35 1.50 1.48 1.60 1.85 1.83 2.00 2.03 1.98 1.87 1.62 1.30 0.97 0.72 0.75 0.81 0.79 1.04 0.94 0.82 0.68 0.58 0.50 0.43 0.62 0.59 0.56 0.54 0.56 0.48 0.59 0.78 0.92 0.89 1.04 1.35 1.97 1.95 1.67 1.68
0.89 0.80 0.99 1.25 1.48 1.45 1.48 1.64 2.02 2.11 2.25 2.48 2.19 2.05 1.74 1.27 1.07 1.12 1.19 1.23 1.04 0.71 0.69 0.60 0.48 0.56 0.51 0.49 0.54 0.65 0.55 0.58 0.52 0.53 0.57 0.69 0.85 0.94 1.15 1.50 2.19 2.79 2.52
2.19 1.76 1.70 1.54 1.46 1.50 1.71 1.82 1.82 1.82 1.68 1.62 1.92 2.16 2.14 1.76 1.50 1.20 1.18 1.32 1.67 1.28 0.53 0.28 0.41 0.51 0.60 0.70 0.55 0.65 0.68 0.64 0.62 0.54 0.51 0.49 0.54 0.59 0.71 1.02 1.36 1.58 1.69
3.52 3.08 2.59 2.25 1.94 1.89 1.80 1.47 1.38 1.53 1.79 1.64 1.71 1.88 1.96 2.00 1.94 1.91 1.93 1.76 1.93 2.07 1.62 0.53 0.45 0.37 0.41 0.48 0.60 0.79 0.74 0.74 0.76 0.81 0.90 0.78 0.53 0.52 0.51 0.53 0.60 0.73 0.88
2.62 3.34 3.32 2.76 2.52 2.07 1.99 1.86 1.50 1.30 1.38 1.81 1.89 1.87 1.88 1.83 2.11 2.13 2.01 1.94 1.77 1.86 1.70 0.90 0.86 0.78 0.69 0.57 0.54 0.68 0.72 0.71 0.76 0.90 1.03 1.19 1.14 0.98 0.85 0.81 0.70 0.59 0.58
2.38 2.24 2.49 2.88 2.59 2.55 2.15 2.08 1.95 1.87 1.88 1.75 1.75 2.03 2.24 2.07 1.91 1.66 1.74 2.06 1.91 1.67 1.90 1.63 1.45 1.45 1.20 0.98 0.92 0.90 0.80 0.76 0.73 0.92 0.93 1.16 1.36 1.20 1.19 1.31 1.34 1.34 1.08
1.65 1.71 1.96 2.07 2.19 2.55 2.40 2.31 1.96 1.58 1.83 1.85 1.93 1.92 1.95 2.19 2.26 2.09 1.87 1.60 1.56 1.66 1.64 1.64 1.57 1.64 1.83 1.50 1.55 1.75 1.75 1.49 1.43 1.25 0.96 0.94 1.12 1.32 1.32 1.35 1.32 1.30 1.27
1.74 1.66 1.62 1.78 1.98 1.94 2.19 2.39 2.51 2.19 1.78 1.56 1.50 1.72 1.74 1.85 2.18 2.35 2.45 2.40 2.09 1.88 1.70 1.77 1.80 1.81 1.78 1.92 1.88 1.99 2.53 2.31 1.82 1.39 1.26 1.28 1.34 1.20 1.23 1.22 1.32 1.30 1.17
2.26 2.01 1.90 1.67 1.68 2.01 2.37 2.28 2.30 2.28 2.11 2.06 1.72 1.52 1.77 2.05 2.06 2.03 2.28 2.53 2.68 2.63 2.64 2.54 2.45 2.48 2.14 1.53 1.70 1.92 2.30 2.37 2.38 2.10 1.77 1.56 1.54 1.68 1.66 1.57 1.45 1.39 1.34
2.06 1.86 2.10 1.67 1.59 1.49 2.17 2.28 2.30 2.31 2.14 2.09 2.22 2.00 1.92 2.19 2.12 2.25 2.32 2.30 2.35 2.67 2.65 2.54 2.68 2.62 2.38 2.34 2.11 2.20 2.47 2.58 2.48 2.21 2.25 1.99 1.70 1.63 1.73 1.82 2.09 1.85 1.62
1.59 1.67 1.71 1.54 1.23 1.12 1.41 1.34 1.55 1.54 1.82 2.01 1.97 2.02 1.91 1.93 1.83 1.49 1.85 1.90 1.89 2.16 2.47 2.39 2.38 2.48 2.59 2.60 2.51 2.51 2.59 2.89 2.94 2.68 2.63 2.84 2.67 2.51 2.19 2.05 2.34 1.75 1.71
1.70 1.45 1.35 1.22 1.15 1.13 1.12 1.03 1.13 0.83 0.84 0.87 0.84 0.79 0.76 0.80 1.21 1.25 1.20 1.53 1.82 2.17 2.47 2.66 2.96 3.22 3.25 2.99 2.92 2.90 2.65 2.66 2.71 2.59 2.75 3.16 2.98 3.10 2.93 2.55 2.87 2.05 1.80
1.54 1.41 1.24 1.18 1.09 1.01 1.24 1.03 0.94 0.62 0.72 0.77 0.74 0.80 0.88 0.67 1.30 1.13 0.72 0.86 1.13 1.37 1.94 2.03 2.08 2.22 2.27 2.06 1.97 2.16 2.72 3.11 3.05 2.63 2.34 2.50 2.50 2.79 2.82 2.66 2.65 2.72 2.22
1.68 1.72 1.76 1.66 1.58 1.11 1.39 1.28 1.19 0.90 0.99 0.99 0.96 1.04 1.65 1.26 1.65 1.30 1.12 1.12 1.34 1.45 1.41 1.43 1.48 1.45 1.37 1.37 1.65 1.48 1.72 2.50 3.06 2.99 2.51 2.58 2.45 2.54 2.90 2.73 2.39 2.21 2.09

GFSMA_prec_precacc_201.txt.gz
Total_Precipitation_Accumulation
0.42 0.45 0.43 0.47 0.86 0.82 0.89 0.54 0.48 0.56 0.53 0.54 0.46 0.33 0.22 0.47 0.47 0.57 0.72 0.85 0.91 0.87 1.02 0.98 0.81 0.85 0.74 0.51 0.35 0.30 0.36 0.45 0.47 0.61 0.61 0.44 0.42 0.46 0.58 0.76 0.87 0.74 0.81
0.56 0.60 0.53 0.44 0.62 0.62 0.69 0.60 0.34 0.49 0.63 0.54 0.52 0.35 0.11 0.33 0.47 0.70 0.94 1.16 1.23 1.12 1.22 1.24 1.10 0.81 0.66 0.69 0.54 0.37 0.33 0.32 0.45 0.50 0.52 0.51 0.48 0.46 0.41 0.46 0.68 0.72 0.69
0.76 0.63 0.66 0.51 0.44 0.47 0.44 0.55 0.53 0.53 0.54 0.55 0.48 0.46 0.27 0.17 0.22 0.51 0.93 0.85 0.85 0.76 0.83 1.35 1.25 0.82 0.56 0.62 0.50 0.40 0.37 0.32 0.39 0.46 0.47 0.57 0.62 0.50 0.46 0.45 0.54 0.67 0.75
0.87 0.80 0.70 0.55 0.54 0.46 0.31 0.43 0.34 0.44 0.48 0.43 0.36 0.35 0.29 0.16 0.10 0.22 0.59 0.63 0.66 0.52 0.54 0.55 0.85 0.78 0.47 0.39 0.46 0.42 0.44 0.36 0.33 0.37 0.39 0.50 0.80 0.73 0.59 0.50 0.59 0.71 0.75
0.93 0.81 0.75 0.56 0.64 0.62 0.36 0.35 0.33 0.36 0.40 0.38 0.31 0.35 0.38 0.25 0.15 0.16 0.33 0.56 0.56 0.60 0.41 0.42 0.39 0.40 0.43 0.44 0.50 0.55 0.58 0.58 0.44 0.45 0.46 0.66 0.64 0.85 1.07 0.92 0.70 0.75 0.79
1.13 0.96 0.96 0.87 0.78 0.61 0.52 0.55 0.48 0.45 0.39 0.30 0.36 0.39 0.30 0.31 0.29 0.29 0.30 0.38 0.61 0.65 0.71 0.50 0.50 0.43 0.36 0.41 0.59 0.70 0.73 0.73 0.56 0.60 0.53 0.55 0.68 0.72 0.92 1.00 0.98 0.98 1.03
1.32 1.08 1.08 1.04 0.98 0.79 0.58 0.48 0.56 0.70 0.58 0.57 0.77 0.71 0.46 0.43 0.43 0.37 0.36 0.40 0.54 0.54 0.67 0.77 0.58 0.53 0.41 0.43 0.47 0.67 0.76 0.80 0.74 0.68 0.70 0.54 0.62 0.67 0.78 0.96 1.00 1.09 1.17
1.14 1.10 1.10 0.94 0.87 1.04 1.14 1.06 0.88 0.82 0.63 0.74 0.75 0.77 0.89 0.91 0.41 0.34 0.39 0.43 0.56 0.59 0.57 0.61 0.63 0.45 0.32 0.35 0.44 0.63 0.73 0.86 0.91 0.81 0.86 0.82 0.77 0.65 0.60 0.76 1.00 1.11 1.28
0.89 0.88 1.09 1.06 1.00 1.18 1.34 1.20 1.08 1.02 1.10 1.13 0.68 0.81 0.85 0.82 0.70 0.47 0.32 0.33 0.46 0.66 0.85 0.68 0.63 0.38 0.31 0.31 0.36 0.43 0.47 0.51 0.73 0.88 1.03 0.93 0.81 0.59 0.58 0.66 0.75 0.90 1.22
0.71 0.76 0.74 1.09 0.96 1.22 1.47 1.41 1.24 1.05 1.23 1.27 1.20 0.91 0.72 0.63 0.59 0.55 0.45 0.46 0.60 0.54 0.45 0.39 0.40 0.39 0.44 0.47 0.43 0.46 0.49 0.57 0.52 0.58 0.81 1.17 0.97 0.65 0.44 0.43 0.54 0.63 0.82
0.58 0.77 0.91 0.90 1.17 1.42 1.50 1.55 1.74 1.59 1.38 1.21 1.00 0.84 0.88 0.83 0.64 0.67 0.61 0.45 0.41 0.45 0.54 0.65 0.51 0.46 0.47 0.63 0.69 0.73 0.67 0.74 0.94 0.82 0.65 0.80 1.01 1.14 0.93 0.74 0.73 0.84 1.07
0.49 0.73 1.09 1.31 1.22 1.27 1.63 1.60 1.75 1.77 1.83 1.73 1.44 1.15 0.80 0.81 0.70 0.71 0.66 0.66 0.56 0.34 0.39 0.56 0.75 0.65 0.59 0.48 0.46 0.50 0.53 0.49 0.56 0.97 1.01 0.86 0.94 1.12 1.51 1.27 1.30 1.44 1.60
0.48 0.53 0.88 1.35 1.51 1.48 1.60 1.85 1.83 2.00 2.03 1.98 1.87 1.62 1.30 0.97 0.72 0.75 0.81 0.79 1.04 0.94 0.82 0.68 0.58 0.50 0.43 0.62 0.59 0.56 0.54 0.56 0.48 0.59 0.78 0.92 0.89 1.04 1.35 1.97 1.95 1.67 1.68
0.90 0.83 1.02 1.27 1.51 1.46 1.48 1.64 2.02 2.11 2.25 2.48 2.19 2.05 1.74 1.27 1.07 1.12 1.19 1.23 1.04 0.71 0.69 0.60 0.48 0.56 0.51 0.49 0.54 0.65 0.55 0.58 0.52 0.53 0.57 0.69 0.85 0.94 1.15 1.50 2.19 2.79 2.52
2.20 1.79 1.73 1.57 1.49 1.52 1.71 1.82 1.82 1.82 1.68 1.62 1.92 2.16 2.14 1.76 1.50 1.20 1.18 1.32 1.67 1.28 0.53 0.28 0.41 0.51 0.60 0.70 0.55 0.65 0.68 0.64 0.62 0.54 0.51 0.49 0.54 0.59 0.71 1.02 1.36 1.58 1.69
3.52 3.08 2.59 2.27 1.95 1.90 1.80 1.48 1.38 1.53 1.79 1.64 1.71 1.88 1.96 2.00 1.94 1.91 1.93 1.76 1.93 2.07 1.62 0.53 0.45 0.37 0.41 0.48 0.60 0.79 0.74 0.74 0.76 0.81 0.90 0.78 0.53 0.52 0.51 0.53 0.60 0.73 0.88
2.62 3.34 3.33 2.79 2.56 2.12 2.04 1.90 1.54 1.31 1.39 1.82 1.89 1.87 1.88 1.83 2.11 2.13 2.01 1.94 1.77 1.86 1.70 0.90 0.86 0.78 0.69 0.57 0.54 0.68 0.72 0.71 0.76 0.90 1.03 1.19 1.14 0.98 0.85 0.81 0.70 0.59 0.58
2.38 2.24 2.50 2.91 2.63 2.60 2.23 2.19 2.05 1.96 1.93 1.78 1.76 2.03 2.24 2.07 1.91 1.67 1.74 2.07 1.91 1.67 1.90 1.63 1.45 1.45 1.20 0.98 0.92 0.90 0.80 0.76 0.73 0.92 0.93 1.16 1.36 1.20 1.19 1.31 1.34 1.34 1.08
1.65 1.71 1.96 2.08 2.22 2.61 2.48 2.39 2.05 1.69 1.93 1.91 1.96 1.92 1.97 2.23 2.30 2.13 1.89 1.61 1.56 1.66 1.64 1.64 1.57 1.64 1.83 1.50 1.55 1.75 1.75 1.49 1.43 1.25 0.96 0.94 1.12 1.32 1.32 1.35 1.32 1.30 1.27
1.74 1.66 1.62 1.79 2.01 1.99 2.25 2.46 2.60 2.27 1.86 1.64 1.58 1.81 1.86 1.96 2.28 2.44 2.48 2.40 2.09 1.88 1.70 1.77 1.80 1.81 1.78 1.92 1.88 1.99 2.53 2.31 1.82 1.39 1.26 1.28 1.34 1.20 1.23 1.22 1.32 1.30 1.17
2.27 2.02 1.90 1.69 1.69 2.03 2.39 2.32 2.35 2.36 2.22 2.20 1.88 1.70 1.95 2.20 2.16 2.08 2.29 2.53 2.68 2.63 2.64 2.54 2.45 2.48 2.14 1.53 1.70 1.92 2.30 2.37 2.38 2.10 1.77 1.56 1.54 1.68 1.66 1.57 1.45 1.39 1.34
2.07 1.86 2.11 1.69 1.62 1.53 2.22 2.36 2.39 2.42 2.28 2.26 2.39 2.16 2.06 2.27 2.16 2.26 2.33 2.30 2.35 2.67 2.65 2.54 2.68 2.62 2.38 2.34 2.11 2.20 2.47 2.58 2.48 2.21 2.25 1.99 1.70 1.63 1.73 1.82 2.09 1.85 1.62
1.62 1.69 1.72 1.55 1.25 1.14 1.45 1.43 1.67 1.69 1.99 2.16 2.11 2.14 2.00 1.97 1.85 1.50 1.85 1.91 1.89 2.16 2.47 2.39 2.38 2.48 2.59 2.60 2.51 2.51 2.59 2.89 2.94 2.68 2.63 2.84 2.67 2.51 2.19 2.05 2.34 1.75 1.71
1.70 1.45 1.35 1.22 1.15 1.14 1.14 1.07 1.19 0.92 0.95 0.97 0.92 0.84 0.78 0.82 1.23 1.26 1.21 1.53 1.83 2.17 2.47 2.66 2.96 3.22 3.25 2.99 2.92 2.90 2.65 2.66 2.71 2.59 2.75 3.17 2.98 3.10 2.93 2.55 2.87 2.05 1.80
1.54 1.41 1.24 1.18 1.09 1.01 1.26 1.07 1.01 0.70 0.79 0.83 0.78 0.82 0.89 0.68 1.31 1.13 0.72 0.86 1.13 1.38 1.94 2.03 2.08 2.22 2.27 2.06 1.97 2.16 2.72 3.11 3.05 2.63 2.34 2.50 2.50 2.79 2.82 2.66 2.65 2.72 2.22
1.68 1.72 1.76 1.66 1.61 1.15 1.47 1.37 1.27 0.98 1.07 1.05 1.01 1.07 1.67 1.28 1.67 1.31 1.14 1.13 1.36 1.47 1.41 1.43 1.48 1.45 1.37 1.37 1.65 1.48 1.72 2.50 3.06 2.99 2.51 2.58 2.45 2.54 2.90 2.73 2.39 2.21 2.09